Wetterdaten: Donnerstag, 23.12.2021
Datum Zeit Temp. Aussen Temp. o. S. Temp +5cm Feuchte Auss Luftdruck Regen Sonnenschein Regendauer Solar Windben Empfang
23.12.2021 00:00 -0,8 C -1,7 C -3,3 C 87 % 1018,7 hPa 0,0 l/m 0 min 0 min 0 W/m 6,4 km/h (2 Bft) 93,62 %
23.12.2021 00:02 -0,8 C -1,7 C -3,3 C 87 % 1018,7 hPa 0,0 l/m 0 min 0 min 0 W/m 12,9 km/h (3 Bft) 97,67 %
23.12.2021 00:04 -0,8 C -1,7 C -3,3 C 87 % 1018,7 hPa 0,0 l/m 0 min 0 min 0 W/m 6,4 km/h (2 Bft) 91,49 %
23.12.2021 00:07 -0,8 C -1,7 C -3,3 C 87 % 1018,7 hPa 0,0 l/m 0 min 0 min 0 W/m 12,9 km/h (3 Bft) 95,71 %
23.12.2021 00:08 -0,8 C -1,7 C -3,3 C 87 % 1018,7 hPa 0,0 l/m 0 min 0 min 0 W/m 3,2 km/h (1 Bft) 91,30 %
23.12.2021 00:10 -0,8 C -1,7 C -3,3 C 87 % 1018,6 hPa 0,0 l/m 0 min 0 min 0 W/m 16,1 km/h (3 Bft) 95,74 %
23.12.2021 00:12 -0,8 C -1,7 C -3,3 C 87 % 1018,6 hPa 0,0 l/m 0 min 0 min 0 W/m 19,3 km/h (3 Bft) 95,74 %
23.12.2021 00:14 -0,8 C -1,7 C -3,3 C 87 % 1018,6 hPa 0,0 l/m 0 min 0 min 0 W/m 12,9 km/h (3 Bft) 97,87 %
23.12.2021 00:16 -0,8 C -1,7 C -3,3 C 87 % 1018,5 hPa 0,0 l/m 0 min 0 min 0 W/m 12,9 km/h (3 Bft) 95,74 %
23.12.2021 00:18 -0,8 C -1,7 C -3,3 C 87 % 1018,4 hPa 0,0 l/m 0 min 0 min 0 W/m 12,9 km/h (3 Bft) 95,65 %
23.12.2021 00:20 -0,9 C -1,7 C -3,3 C 87 % 1018,5 hPa 0,0 l/m 0 min 0 min 0 W/m 6,4 km/h (2 Bft) 95,74 %
23.12.2021 00:22 -0,9 C -1,7 C -3,3 C 87 % 1018,5 hPa 0,0 l/m 0 min 0 min 0 W/m 16,1 km/h (3 Bft) 95,74 %
23.12.2021 00:24 -0,8 C -1,7 C -3,3 C 87 % 1018,4 hPa 0,0 l/m 0 min 0 min 0 W/m 16,1 km/h (3 Bft) 93,62 %
23.12.2021 00:26 -0,9 C -1,7 C -3,3 C 87 % 1018,4 hPa 0,0 l/m 0 min 0 min 0 W/m 16,1 km/h (3 Bft) 95,74 %
23.12.2021 00:28 -0,9 C -1,7 C -3,3 C 87 % 1018,3 hPa 0,0 l/m 0 min 0 min 0 W/m 12,9 km/h (3 Bft) 95,74 %
23.12.2021 00:30 -0,9 C -1,7 C -3,3 C 87 % 1018,1 hPa 0,0 l/m 0 min 0 min 0 W/m 12,9 km/h (3 Bft) 95,65 %
23.12.2021 00:32 -0,9 C -1,7 C -3,3 C 87 % 1018,0 hPa 0,0 l/m 0 min 0 min 0 W/m 19,3 km/h (3 Bft) 95,74 %
23.12.2021 00:34 -0,9 C -1,7 C -3,3 C 87 % 1017,9 hPa 0,0 l/m 0 min 0 min 0 W/m 19,3 km/h (3 Bft) 93,62 %
23.12.2021 00:36 -0,9 C -1,7 C -3,3 C 87 % 1017,9 hPa 0,0 l/m 0 min 0 min 0 W/m 16,1 km/h (3 Bft) 95,74 %
23.12.2021 00:38 -0,9 C -1,7 C -3,3 C 87 % 1017,9 hPa 0,0 l/m 0 min 0 min 0 W/m 12,9 km/h (3 Bft) 95,92 %
23.12.2021 00:40 -0,9 C -1,7 C -3,3 C 88 % 1017,9 hPa 0,0 l/m 0 min 0 min 0 W/m 16,1 km/h (3 Bft) 94,44 %
23.12.2021 00:42 -0,9 C -1,7 C -3,3 C 88 % 1018,0 hPa 0,0 l/m 0 min 0 min 0 W/m 9,7 km/h (2 Bft) 95,65 %
23.12.2021 00:44 -0,9 C -1,7 C -3,3 C 88 % 1018,0 hPa 0,0 l/m 0 min 0 min 0 W/m 12,9 km/h (3 Bft) 95,74 %
23.12.2021 00:46 -0,9 C -1,7 C -3,3 C 88 % 1018,0 hPa 0,0 l/m 0 min 0 min 0 W/m 12,9 km/h (3 Bft) 95,74 %
23.12.2021 00:48 -0,9 C -1,7 C -3,3 C 88 % 1018,0 hPa 0,0 l/m 0 min 0 min 0 W/m 16,1 km/h (3 Bft) 95,74 %
23.12.2021 00:50 -0,9 C -1,7 C -3,3 C 88 % 1017,9 hPa 0,0 l/m 0 min 0 min 0 W/m 9,7 km/h (2 Bft) 95,74 %
23.12.2021 00:52 -0,9 C -1,7 C -3,3 C 88 % 1017,9 hPa 0,0 l/m 0 min 0 min 0 W/m 16,1 km/h (3 Bft) 97,87 %
23.12.2021 00:54 -0,9 C -1,7 C -3,3 C 88 % 1018,0 hPa 0,0 l/m 0 min 0 min 0 W/m 16,1 km/h (3 Bft) 97,83 %
23.12.2021 00:56 -0,9 C -1,7 C -3,3 C 88 % 1017,9 hPa 0,0 l/m 0 min 0 min 0 W/m 16,1 km/h (3 Bft) 93,62 %
23.12.2021 00:58 -0,9 C -1,7 C -3,3 C 88 % 1017,9 hPa 0,0 l/m 0 min 0 min 0 W/m 19,3 km/h (3 Bft) 97,87 %
23.12.2021 01:00 -0,9 C -1,7 C -3,3 C 88 % 1017,9 hPa 0,0 l/m 0 min 0 min 0 W/m 16,1 km/h (3 Bft) 97,87 %
23.12.2021 01:02 -0,9 C -1,7 C -3,3 C 88 % 1017,8 hPa 0,0 l/m 0 min 0 min 0 W/m 12,9 km/h (3 Bft) 95,74 %
23.12.2021 01:04 -0,9 C -1,7 C -3,3 C 88 % 1017,7 hPa 0,0 l/m 0 min 0 min 0 W/m 16,1 km/h (3 Bft) 97,87 %
23.12.2021 01:06 -0,9 C -1,7 C -3,3 C 88 % 1017,8 hPa 0,0 l/m 0 min 0 min 0 W/m 16,1 km/h (3 Bft) 97,83 %
23.12.2021 01:08 -0,8 C -1,7 C -3,3 C 88 % 1017,9 hPa 0,0 l/m 0 min 0 min 0 W/m 16,1 km/h (3 Bft) 97,87 %
23.12.2021 01:10 -0,8 C -1,7 C -3,3 C 88 % 1018,0 hPa 0,0 l/m 0 min 0 min 0 W/m 12,9 km/h (3 Bft) 95,74 %
23.12.2021 01:12 -0,8 C -1,7 C -3,3 C 88 % 1018,0 hPa 0,0 l/m 0 min 0 min 0 W/m 6,4 km/h (2 Bft) 95,74 %
23.12.2021 01:14 -0,8 C -1,7 C -3,3 C 88 % 1017,9 hPa 0,0 l/m 0 min 0 min 0 W/m 6,4 km/h (2 Bft) 97,87 %
23.12.2021 01:16 -0,8 C -1,1 C -3,3 C 88 % 1017,8 hPa 0,0 l/m 0 min 0 min 0 W/m 16,1 km/h (3 Bft) 100,00 %
23.12.2021 01:18 -0,8 C -1,1 C -3,3 C 88 % 1017,7 hPa 0,0 l/m 0 min 0 min 0 W/m 19,3 km/h (3 Bft) 97,87 %
23.12.2021 01:20 -0,8 C -1,1 C -3,3 C 88 % 1017,6 hPa 0,0 l/m 0 min 0 min 0 W/m 19,3 km/h (3 Bft) 100,00 %
23.12.2021 01:22 -0,8 C -1,1 C -3,3 C 88 % 1017,6 hPa 0,0 l/m 0 min 0 min 0 W/m 16,1 km/h (3 Bft) 97,87 %
23.12.2021 01:24 -0,8 C -1,1 C -3,3 C 87 % 1017,6 hPa 0,0 l/m 0 min 0 min 0 W/m 19,3 km/h (3 Bft) 100,00 %
23.12.2021 01:26 -0,8 C -1,1 C -3,3 C 87 % 1017,5 hPa 0,0 l/m 0 min 0 min 0 W/m 19,3 km/h (3 Bft) 100,00 %
23.12.2021 01:28 -0,8 C -1,1 C -3,3 C 87 % 1017,4 hPa 0,0 l/m 0 min 0 min 0 W/m 16,1 km/h (3 Bft) 100,00 %
23.12.2021 01:30 -0,8 C -1,1 C -3,3 C 87 % 1017,4 hPa 0,0 l/m 0 min 0 min 0 W/m 12,9 km/h (3 Bft) 97,87 %
23.12.2021 01:32 -0,8 C -1,1 C -3,3 C 87 % 1017,3 hPa 0,0 l/m 0 min 0 min 0 W/m 19,3 km/h (3 Bft) 100,00 %
23.12.2021 01:34 -0,8 C -1,1 C -3,3 C 87 % 1017,3 hPa 0,0 l/m 0 min 0 min 0 W/m 16,1 km/h (3 Bft) 100,00 %
23.12.2021 01:36 -0,8 C -1,1 C -3,3 C 87 % 1017,3 hPa 0,0 l/m 0 min 0 min 0 W/m 19,3 km/h (3 Bft) 100,00 %
23.12.2021 01:38 -0,8 C -1,1 C -3,3 C 87 % 1017,3 hPa 0,0 l/m 0 min 0 min 0 W/m 16,1 km/h (3 Bft) 97,87 %
23.12.2021 01:40 -0,8 C -1,1 C -3,3 C 87 % 1017,3 hPa 0,0 l/m 0 min 0 min 0 W/m 19,3 km/h (3 Bft) 100,00 %
23.12.2021 01:42 -0,8 C -1,1 C -3,3 C 87 % 1017,3 hPa 0,0 l/m 0 min 0 min 0 W/m 16,1 km/h (3 Bft) 100,00 %
23.12.2021 01:44 -0,7 C -1,1 C -3,3 C 87 % 1017,2 hPa 0,0 l/m 0 min 0 min 0 W/m 16,1 km/h (3 Bft) 100,00 %
23.12.2021 01:46 -0,7 C -1,1 C -3,3 C 87 % 1017,1 hPa 0,0 l/m 0 min 0 min 0 W/m 16,1 km/h (3 Bft) 95,74 %
23.12.2021 01:48 -0,7 C -1,1 C -3,3 C 87 % 1017,0 hPa 0,0 l/m 0 min 0 min 0 W/m 19,3 km/h (3 Bft) 97,87 %
23.12.2021 01:50 -0,7 C -1,1 C -3,3 C 87 % 1016,9 hPa 0,0 l/m 0 min 0 min 0 W/m 16,1 km/h (3 Bft) 97,87 %
23.12.2021 01:52 -0,7 C -1,1 C -3,3 C 87 % 1016,7 hPa 0,0 l/m 0 min 0 min 0 W/m 25,7 km/h (4 Bft) 97,83 %
23.12.2021 01:54 -0,7 C -1,1 C -3,3 C 87 % 1016,7 hPa 0,0 l/m 0 min 0 min 0 W/m 12,9 km/h (3 Bft) 97,87 %
23.12.2021 01:56 -0,7 C -1,1 C -3,3 C 87 % 1016,8 hPa 0,0 l/m 0 min 0 min 0 W/m 19,3 km/h (3 Bft) 97,87 %
23.12.2021 01:58 -0,7 C -1,1 C -3,3 C 87 % 1017,0 hPa 0,0 l/m 0 min 0 min 0 W/m 16,1 km/h (3 Bft) 97,87 %
23.12.2021 02:00 -0,7 C -1,1 C -3,3 C 87 % 1017,0 hPa 0,0 l/m 0 min 0 min 0 W/m 22,5 km/h (4 Bft) 97,87 %
23.12.2021 02:02 -0,7 C -1,1 C -3,3 C 87 % 1016,8 hPa 0,0 l/m 0 min 0 min 0 W/m 12,9 km/h (3 Bft) 82,98 %
23.12.2021 02:04 -0,7 C -1,7 C -3,3 C 87 % 1016,7 hPa 0,0 l/m 0 min 0 min 0 W/m 16,1 km/h (3 Bft) 62,86 %
23.12.2021 02:06 -0,7 C -1,7 C -3,3 C 87 % 1016,8 hPa 0,0 l/m 0 min 0 min 0 W/m 16,1 km/h (3 Bft) 97,87 %
23.12.2021 02:08 -0,7 C -1,1 C -3,3 C 87 % 1016,7 hPa 0,0 l/m 0 min 0 min 0 W/m 19,3 km/h (3 Bft) 97,87 %
23.12.2021 02:10 -0,7 C -1,7 C -3,3 C 87 % 1016,8 hPa 0,0 l/m 0 min 0 min 0 W/m 16,1 km/h (3 Bft) 97,87 %
23.12.2021 02:12 -0,8 C -1,7 C -3,3 C 87 % 1016,9 hPa 0,0 l/m 0 min 0 min 0 W/m 9,7 km/h (2 Bft) 97,87 %
23.12.2021 02:14 -0,8 C -1,7 C -3,3 C 87 % 1016,9 hPa 0,0 l/m 0 min 0 min 0 W/m 12,9 km/h (3 Bft) 96,30 %
23.12.2021 02:16 -0,8 C -1,7 C -3,3 C 87 % 1016,9 hPa 0,0 l/m 0 min 0 min 0 W/m 19,3 km/h (3 Bft) 97,83 %
23.12.2021 02:18 -0,8 C -1,7 C -3,3 C 87 % 1016,8 hPa 0,0 l/m 0 min 0 min 0 W/m 22,5 km/h (4 Bft) 100,00 %
23.12.2021 02:20 -0,8 C -1,7 C -3,3 C 87 % 1016,8 hPa 0,0 l/m 0 min 0 min 0 W/m 16,1 km/h (3 Bft) 100,00 %
23.12.2021 02:22 -0,8 C -1,7 C -3,3 C 87 % 1016,7 hPa 0,0 l/m 0 min 0 min 0 W/m 19,3 km/h (3 Bft) 100,00 %
23.12.2021 02:24 -0,8 C -1,7 C -3,3 C 87 % 1016,7 hPa 0,0 l/m 0 min 0 min 0 W/m 19,3 km/h (3 Bft) 97,87 %
23.12.2021 02:26 -0,8 C -1,7 C -3,3 C 87 % 1016,5 hPa 0,0 l/m 0 min 0 min 0 W/m 9,7 km/h (2 Bft) 100,00 %
23.12.2021 02:28 -0,8 C -1,7 C -3,3 C 87 % 1016,5 hPa 0,0 l/m 0 min 0 min 0 W/m 19,3 km/h (3 Bft) 100,00 %
23.12.2021 02:30 -0,8 C -1,7 C -3,3 C 87 % 1016,4 hPa 0,0 l/m 0 min 0 min 0 W/m 19,3 km/h (3 Bft) 100,00 %
23.12.2021 02:32 -0,8 C -1,7 C -3,3 C 87 % 1016,4 hPa 0,0 l/m 0 min 0 min 0 W/m 16,1 km/h (3 Bft) 95,74 %
23.12.2021 02:34 -0,8 C -1,7 C -3,3 C 87 % 1016,4 hPa 0,0 l/m 0 min 0 min 0 W/m 12,9 km/h (3 Bft) 97,87 %
23.12.2021 02:36 -0,8 C -1,7 C -3,3 C 87 % 1016,5 hPa 0,0 l/m 0 min 0 min 0 W/m 12,9 km/h (3 Bft) 97,87 %
23.12.2021 02:38 -0,8 C -1,7 C -3,3 C 87 % 1016,4 hPa 0,0 l/m 0 min 0 min 0 W/m 12,9 km/h (3 Bft) 98,04 %
23.12.2021 02:40 -0,8 C -1,7 C -3,3 C 87 % 1016,5 hPa 0,0 l/m 0 min 0 min 0 W/m 16,1 km/h (3 Bft) 97,87 %
23.12.2021 02:42 -0,8 C -1,7 C -3,3 C 87 % 1016,5 hPa 0,0 l/m 0 min 0 min 0 W/m 12,9 km/h (3 Bft) 97,87 %
23.12.2021 02:44 -0,8 C -1,7 C -3,3 C 87 % 1016,4 hPa 0,0 l/m 0 min 0 min 0 W/m 9,7 km/h (2 Bft) 55,32 %
23.12.2021 02:46 -0,8 C -1,7 C -3,3 C 87 % 1016,5 hPa 0,0 l/m 0 min 0 min 0 W/m 16,1 km/h (3 Bft) 95,65 %
23.12.2021 02:48 -0,8 C -1,7 C -3,3 C 87 % 1016,4 hPa 0,0 l/m 0 min 0 min 0 W/m 16,1 km/h (3 Bft) 97,87 %
23.12.2021 02:50 -0,8 C -1,7 C -3,3 C 87 % 1016,4 hPa 0,0 l/m 0 min 0 min 0 W/m 6,4 km/h (2 Bft) 97,87 %
23.12.2021 02:52 -0,8 C -1,7 C -3,3 C 87 % 1016,4 hPa 0,0 l/m 0 min 0 min 0 W/m 12,9 km/h (3 Bft) 97,87 %
23.12.2021 02:54 -0,9 C -1,7 C -3,3 C 87 % 1016,4 hPa 0,0 l/m 0 min 0 min 0 W/m 12,9 km/h (3 Bft) 97,87 %
23.12.2021 02:56 -0,9 C -1,7 C -3,3 C 87 % 1016,4 hPa 0,0 l/m 0 min 0 min 0 W/m 6,4 km/h (2 Bft) 95,74 %
23.12.2021 02:58 -0,9 C -1,7 C -3,3 C 87 % 1016,4 hPa 0,0 l/m 0 min 0 min 0 W/m 6,4 km/h (2 Bft) 100,00 %
23.12.2021 03:00 -0,9 C -1,7 C -3,3 C 87 % 1016,4 hPa 0,0 l/m 0 min 0 min 0 W/m 12,9 km/h (3 Bft) 97,87 %
23.12.2021 03:02 -0,9 C -1,7 C -3,3 C 87 % 1016,3 hPa 0,0 l/m 0 min 0 min 0 W/m 16,1 km/h (3 Bft) 97,87 %
23.12.2021 03:04 -0,9 C -1,7 C -3,9 C 87 % 1016,1 hPa 0,0 l/m 0 min 0 min 0 W/m 12,9 km/h (3 Bft) 97,87 %
23.12.2021 03:06 -0,9 C -1,7 C -3,3 C 87 % 1016,0 hPa 0,0 l/m 0 min 0 min 0 W/m 16,1 km/h (3 Bft) 97,87 %
23.12.2021 03:08 -0,9 C -1,7 C -3,3 C 87 % 1016,0 hPa 0,0 l/m 0 min 0 min 0 W/m 16,1 km/h (3 Bft) 97,14 %
23.12.2021 03:10 -0,9 C -1,7 C -3,3 C 87 % 1016,1 hPa 0,0 l/m 0 min 0 min 0 W/m 12,9 km/h (3 Bft) 97,87 %
23.12.2021 03:12 -0,9 C -1,7 C -3,3 C 87 % 1016,1 hPa 0,0 l/m 0 min 0 min 0 W/m 6,4 km/h (2 Bft) 97,83 %
23.12.2021 03:14 -0,9 C -1,7 C -3,3 C 87 % 1016,0 hPa 0,0 l/m 0 min 0 min 0 W/m 12,9 km/h (3 Bft) 100,00 %
23.12.2021 03:16 -0,9 C -1,7 C -3,3 C 88 % 1016,1 hPa 0,0 l/m 0 min 0 min 0 W/m 16,1 km/h (3 Bft) 100,00 %
23.12.2021 03:18 -0,9 C -1,7 C -3,3 C 88 % 1016,1 hPa 0,0 l/m 0 min 0 min 0 W/m 16,1 km/h (3 Bft) 100,00 %
23.12.2021 03:20 -0,9 C -1,7 C -3,3 C 88 % 1016,1 hPa 0,0 l/m 0 min 0 min 0 W/m 16,1 km/h (3 Bft) 100,00 %
23.12.2021 03:22 -0,9 C -1,7 C -3,3 C 88 % 1015,9 hPa 0,0 l/m 0 min 0 min 0 W/m 12,9 km/h (3 Bft) 97,87 %
23.12.2021 03:24 -0,9 C -1,7 C -3,3 C 88 % 1015,9 hPa 0,0 l/m 0 min 0 min 0 W/m 16,1 km/h (3 Bft) 73,91 %
23.12.2021 03:26 -0,9 C -1,1 C -3,3 C 88 % 1015,9 hPa 0,0 l/m 0 min 0 min 0 W/m 16,1 km/h (3 Bft) 80,43 %
23.12.2021 03:28 -0,9 C -1,1 C -3,3 C 88 % 1015,9 hPa 0,0 l/m 0 min 0 min 0 W/m 12,9 km/h (3 Bft) 97,87 %
23.12.2021 03:30 -0,9 C -1,1 C -3,3 C 88 % 1015,9 hPa 0,0 l/m 0 min 0 min 0 W/m 16,1 km/h (3 Bft) 97,87 %
23.12.2021 03:32 -0,9 C -1,1 C -3,3 C 88 % 1015,9 hPa 0,0 l/m 0 min 0 min 0 W/m 22,5 km/h (4 Bft) 93,62 %
23.12.2021 03:34 -0,8 C -1,1 C -3,3 C 88 % 1016,1 hPa 0,0 l/m 0 min 0 min 0 W/m 12,9 km/h (3 Bft) 95,74 %
23.12.2021 03:36 -0,8 C -1,1 C -3,3 C 88 % 1016,1 hPa 0,0 l/m 0 min 0 min 0 W/m 16,1 km/h (3 Bft) 97,83 %
23.12.2021 03:38 -0,8 C -1,1 C -3,3 C 88 % 1016,1 hPa 0,0 l/m 0 min 0 min 0 W/m 12,9 km/h (3 Bft) 100,00 %
23.12.2021 03:40 -0,8 C -1,1 C -3,3 C 88 % 1016,1 hPa 0,0 l/m 0 min 0 min 0 W/m 16,1 km/h (3 Bft) 94,44 %
23.12.2021 03:42 -0,8 C -1,1 C -3,3 C 87 % 1015,9 hPa 0,0 l/m 0 min 0 min 0 W/m 19,3 km/h (3 Bft) 95,74 %
23.12.2021 03:44 -0,8 C -1,1 C -3,3 C 87 % 1015,9 hPa 0,0 l/m 0 min 0 min 0 W/m 19,3 km/h (3 Bft) 95,74 %
23.12.2021 03:46 -0,8 C -1,1 C -3,3 C 87 % 1015,8 hPa 0,0 l/m 0 min 0 min 0 W/m 16,1 km/h (3 Bft) 93,62 %
23.12.2021 03:48 -0,8 C -1,1 C -3,3 C 87 % 1015,8 hPa 0,0 l/m 0 min 0 min 0 W/m 22,5 km/h (4 Bft) 95,65 %
23.12.2021 03:50 -0,7 C -1,1 C -3,3 C 87 % 1015,8 hPa 0,0 l/m 0 min 0 min 0 W/m 25,7 km/h (4 Bft) 95,74 %
23.12.2021 03:52 -0,7 C -1,1 C -3,3 C 87 % 1015,7 hPa 0,0 l/m 0 min 0 min 0 W/m 29,0 km/h (5 Bft) 95,74 %
23.12.2021 03:54 -0,7 C -1,1 C -3,3 C 87 % 1015,8 hPa 0,0 l/m 0 min 0 min 0 W/m 16,1 km/h (3 Bft) 95,65 %
23.12.2021 03:56 -0,7 C -1,1 C -3,3 C 87 % 1015,8 hPa 0,0 l/m 0 min 0 min 0 W/m 19,3 km/h (3 Bft) 95,74 %
23.12.2021 03:58 -0,7 C -1,1 C -3,3 C 87 % 1015,7 hPa 0,0 l/m 0 min 0 min 0 W/m 16,1 km/h (3 Bft) 93,48 %
23.12.2021 04:00 -0,7 C -1,1 C -3,3 C 87 % 1015,8 hPa 0,0 l/m 0 min 0 min 0 W/m 12,9 km/h (3 Bft) 95,74 %
23.12.2021 04:02 -0,7 C -1,1 C -3,3 C 87 % 1015,8 hPa 0,0 l/m 0 min 0 min 0 W/m 22,5 km/h (4 Bft) 95,65 %
23.12.2021 04:04 -0,7 C -1,1 C -3,3 C 87 % 1015,8 hPa 0,0 l/m 0 min 0 min 0 W/m 16,1 km/h (3 Bft) 95,74 %
23.12.2021 04:06 -0,7 C -1,1 C -3,3 C 87 % 1015,8 hPa 0,0 l/m 0 min 0 min 0 W/m 16,1 km/h (3 Bft) 95,74 %
23.12.2021 04:08 -0,7 C -1,1 C -3,3 C 87 % 1015,7 hPa 0,0 l/m 0 min 0 min 0 W/m 16,1 km/h (3 Bft) 96,00 %
23.12.2021 04:10 -0,7 C -1,1 C -3,3 C 87 % 1015,8 hPa 0,0 l/m 0 min 0 min 0 W/m 16,1 km/h (3 Bft) 93,48 %
23.12.2021 04:12 -0,7 C -1,1 C -3,3 C 87 % 1015,9 hPa 0,0 l/m 0 min 0 min 0 W/m 19,3 km/h (3 Bft) 97,87 %
23.12.2021 04:14 -0,7 C -1,1 C -3,3 C 87 % 1015,8 hPa 0,0 l/m 0 min 0 min 0 W/m 12,9 km/h (3 Bft) 97,87 %
23.12.2021 04:16 -0,7 C -1,1 C -3,3 C 87 % 1015,6 hPa 0,0 l/m 0 min 0 min 0 W/m 12,9 km/h (3 Bft) 97,87 %
23.12.2021 04:18 -0,7 C -1,1 C -3,3 C 87 % 1015,5 hPa 0,0 l/m 0 min 0 min 0 W/m 22,5 km/h (4 Bft) 100,00 %
23.12.2021 04:20 -0,7 C -1,1 C -3,3 C 87 % 1015,5 hPa 0,0 l/m 0 min 0 min 0 W/m 19,3 km/h (3 Bft) 95,74 %
23.12.2021 04:22 -0,7 C -1,7 C -3,3 C 87 % 1015,5 hPa 0,0 l/m 0 min 0 min 0 W/m 12,9 km/h (3 Bft) 95,65 %
23.12.2021 04:24 -0,7 C -1,7 C -3,3 C 87 % 1015,5 hPa 0,0 l/m 0 min 0 min 0 W/m 22,5 km/h (4 Bft) 100,00 %
23.12.2021 04:26 -0,7 C -1,7 C -3,3 C 87 % 1015,5 hPa 0,0 l/m 0 min 0 min 0 W/m 16,1 km/h (3 Bft) 100,00 %
23.12.2021 04:28 -0,7 C -1,7 C -3,3 C 87 % 1015,5 hPa 0,0 l/m 0 min 0 min 0 W/m 19,3 km/h (3 Bft) 100,00 %
23.12.2021 04:30 -0,8 C -1,7 C -3,3 C 87 % 1015,4 hPa 0,0 l/m 0 min 0 min 0 W/m 16,1 km/h (3 Bft) 97,87 %
23.12.2021 04:32 -0,8 C -1,7 C -3,3 C 87 % 1015,4 hPa 0,0 l/m 0 min 0 min 0 W/m 19,3 km/h (3 Bft) 97,87 %
23.12.2021 04:34 -0,8 C -1,7 C -3,3 C 87 % 1015,4 hPa 0,0 l/m 0 min 0 min 0 W/m 19,3 km/h (3 Bft) 100,00 %
23.12.2021 04:36 -0,8 C -1,7 C -3,3 C 87 % 1015,5 hPa 0,0 l/m 0 min 0 min 0 W/m 6,4 km/h (2 Bft) 100,00 %
23.12.2021 04:38 -0,8 C -1,7 C -3,3 C 87 % 1015,6 hPa 0,0 l/m 0 min 0 min 0 W/m 22,5 km/h (4 Bft) 97,87 %
23.12.2021 04:40 -0,8 C -1,7 C -3,3 C 87 % 1015,6 hPa 0,0 l/m 0 min 0 min 0 W/m 12,9 km/h (3 Bft) 100,00 %
23.12.2021 04:42 -0,8 C -1,7 C -3,3 C 87 % 1015,5 hPa 0,0 l/m 0 min 0 min 0 W/m 12,9 km/h (3 Bft) 97,87 %
23.12.2021 04:44 -0,8 C -1,7 C -3,3 C 87 % 1015,5 hPa 0,0 l/m 0 min 0 min 0 W/m 16,1 km/h (3 Bft) 100,00 %
23.12.2021 04:46 -0,8 C -1,7 C -3,3 C 87 % 1015,5 hPa 0,0 l/m 0 min 0 min 0 W/m 19,3 km/h (3 Bft) 100,00 %
23.12.2021 04:48 -0,9 C -1,7 C -3,3 C 87 % 1015,4 hPa 0,0 l/m 0 min 0 min 0 W/m 16,1 km/h (3 Bft) 100,00 %
23.12.2021 04:50 -0,9 C -1,7 C -3,3 C 87 % 1015,3 hPa 0,0 l/m 0 min 0 min 0 W/m 16,1 km/h (3 Bft) 100,00 %
23.12.2021 04:52 -0,9 C -1,7 C -3,3 C 87 % 1015,3 hPa 0,0 l/m 0 min 0 min 0 W/m 19,3 km/h (3 Bft) 95,74 %
23.12.2021 04:54 -0,9 C -1,7 C -3,3 C 87 % 1015,2 hPa 0,0 l/m 0 min 0 min 0 W/m 22,5 km/h (4 Bft) 100,00 %
23.12.2021 04:56 -0,9 C -1,7 C -3,3 C 87 % 1015,2 hPa 0,0 l/m 0 min 0 min 0 W/m 16,1 km/h (3 Bft) 100,00 %
23.12.2021 04:58 -0,9 C -1,7 C -3,9 C 87 % 1015,3 hPa 0,0 l/m 0 min 0 min 0 W/m 19,3 km/h (3 Bft) 97,87 %
23.12.2021 05:00 -0,9 C -1,7 C -3,9 C 87 % 1015,2 hPa 0,0 l/m 0 min 0 min 0 W/m 19,3 km/h (3 Bft) 95,74 %
23.12.2021 05:02 -0,9 C -1,7 C -3,9 C 87 % 1015,2 hPa 0,0 l/m 0 min 0 min 0 W/m 16,1 km/h (3 Bft) 95,83 %
23.12.2021 05:04 -0,9 C -1,7 C -3,9 C 88 % 1015,2 hPa 0,0 l/m 0 min 0 min 0 W/m 16,1 km/h (3 Bft) 97,83 %
23.12.2021 05:06 -0,9 C -1,7 C -3,9 C 88 % 1015,1 hPa 0,0 l/m 0 min 0 min 0 W/m 16,1 km/h (3 Bft) 97,87 %
23.12.2021 05:08 -0,9 C -1,7 C -3,9 C 88 % 1015,2 hPa 0,0 l/m 0 min 0 min 0 W/m 16,1 km/h (3 Bft) 100,00 %
23.12.2021 05:10 -0,9 C -1,7 C -3,9 C 88 % 1015,3 hPa 0,0 l/m 0 min 0 min 0 W/m 12,9 km/h (3 Bft) 95,74 %
23.12.2021 05:12 -0,9 C -1,7 C -3,9 C 88 % 1015,2 hPa 0,0 l/m 0 min 0 min 0 W/m 12,9 km/h (3 Bft) 97,87 %
23.12.2021 05:14 -0,9 C -1,7 C -3,9 C 88 % 1015,1 hPa 0,0 l/m 0 min 0 min 0 W/m 16,1 km/h (3 Bft) 98,25 %
23.12.2021 05:16 -1,0 C -1,7 C -3,9 C 88 % 1015,1 hPa 0,0 l/m 0 min 0 min 0 W/m 19,3 km/h (3 Bft) 95,74 %
23.12.2021 05:18 -1,0 C -1,7 C -3,9 C 88 % 1015,1 hPa 0,0 l/m 0 min 0 min 0 W/m 12,9 km/h (3 Bft) 97,87 %
23.12.2021 05:20 -1,0 C -1,7 C -3,9 C 88 % 1015,0 hPa 0,0 l/m 0 min 0 min 0 W/m 16,1 km/h (3 Bft) 97,83 %
23.12.2021 05:22 -1,0 C -1,7 C -3,9 C 88 % 1015,0 hPa 0,0 l/m 0 min 0 min 0 W/m 16,1 km/h (3 Bft) 97,87 %
23.12.2021 05:24 -1,0 C -1,7 C -3,9 C 88 % 1014,9 hPa 0,0 l/m 0 min 0 min 0 W/m 12,9 km/h (3 Bft) 95,74 %
23.12.2021 05:26 -1,0 C -1,7 C -3,9 C 88 % 1015,0 hPa 0,0 l/m 0 min 0 min 0 W/m 12,9 km/h (3 Bft) 97,87 %
23.12.2021 05:28 -1,0 C -1,7 C -3,9 C 88 % 1015,1 hPa 0,0 l/m 0 min 0 min 0 W/m 12,9 km/h (3 Bft) 95,74 %
23.12.2021 05:30 -1,1 C -1,7 C -3,9 C 88 % 1015,1 hPa 0,0 l/m 0 min 0 min 0 W/m 16,1 km/h (3 Bft) 93,62 %
23.12.2021 05:32 -1,1 C -1,7 C -3,9 C 88 % 1015,0 hPa 0,0 l/m 0 min 0 min 0 W/m 12,9 km/h (3 Bft) 95,74 %
23.12.2021 05:34 -1,1 C -1,7 C -3,9 C 88 % 1015,0 hPa 0,0 l/m 0 min 0 min 0 W/m 19,3 km/h (3 Bft) 93,62 %
23.12.2021 05:36 -1,1 C -1,7 C -3,9 C 88 % 1015,0 hPa 0,0 l/m 0 min 0 min 0 W/m 16,1 km/h (3 Bft) 95,74 %
23.12.2021 05:38 -1,1 C -1,7 C -3,9 C 88 % 1014,9 hPa 0,0 l/m 0 min 0 min 0 W/m 12,9 km/h (3 Bft) 97,87 %
23.12.2021 05:40 -1,1 C -1,7 C -3,9 C 88 % 1014,8 hPa 0,0 l/m 0 min 0 min 0 W/m 12,9 km/h (3 Bft) 97,22 %
23.12.2021 05:42 -1,1 C -1,7 C -3,9 C 88 % 1014,9 hPa 0,0 l/m 0 min 0 min 0 W/m 16,1 km/h (3 Bft) 97,87 %
23.12.2021 05:44 -1,1 C -1,7 C -3,9 C 88 % 1014,8 hPa 0,0 l/m 0 min 0 min 0 W/m 16,1 km/h (3 Bft) 97,83 %
23.12.2021 05:46 -1,1 C -1,7 C -3,9 C 88 % 1014,6 hPa 0,0 l/m 0 min 0 min 0 W/m 16,1 km/h (3 Bft) 95,74 %
23.12.2021 05:48 -1,1 C -1,7 C -3,9 C 89 % 1014,6 hPa 0,0 l/m 0 min 0 min 0 W/m 16,1 km/h (3 Bft) 97,87 %
23.12.2021 05:50 -1,1 C -1,7 C -3,9 C 88 % 1014,5 hPa 0,0 l/m 0 min 0 min 0 W/m 16,1 km/h (3 Bft) 97,87 %
23.12.2021 05:52 -1,2 C -1,7 C -3,9 C 88 % 1014,5 hPa 0,0 l/m 0 min 0 min 0 W/m 12,9 km/h (3 Bft) 97,87 %
23.12.2021 05:54 -1,2 C -1,7 C -3,9 C 88 % 1014,6 hPa 0,0 l/m 0 min 0 min 0 W/m 16,1 km/h (3 Bft) 97,83 %
23.12.2021 05:56 -1,2 C -1,7 C -3,9 C 88 % 1014,5 hPa 0,0 l/m 0 min 0 min 0 W/m 19,3 km/h (3 Bft) 97,87 %
23.12.2021 05:58 -1,2 C -1,7 C -3,9 C 88 % 1014,5 hPa 0,0 l/m 0 min 0 min 0 W/m 19,3 km/h (3 Bft) 97,87 %
23.12.2021 06:00 -1,2 C -1,7 C -3,9 C 89 % 1014,5 hPa 0,0 l/m 0 min 0 min 0 W/m 9,7 km/h (2 Bft) 97,87 %
23.12.2021 06:02 -1,2 C -1,7 C -3,9 C 89 % 1014,5 hPa 0,0 l/m 0 min 0 min 0 W/m 19,3 km/h (3 Bft) 95,74 %
23.12.2021 06:04 -1,2 C -1,7 C -3,9 C 89 % 1014,4 hPa 0,0 l/m 0 min 0 min 0 W/m 12,9 km/h (3 Bft) 100,00 %
23.12.2021 06:08 -1,2 C -1,7 C -3,9 C 89 % 1014,5 hPa 0,0 l/m 0 min 0 min 0 W/m 16,1 km/h (3 Bft) 100,00 %
23.12.2021 06:10 -1,2 C -1,7 C -3,9 C 89 % 1014,3 hPa 0,0 l/m 0 min 0 min 0 W/m 16,1 km/h (3 Bft) 100,00 %
23.12.2021 06:12 -1,2 C -1,7 C -3,9 C 89 % 1014,3 hPa 0,0 l/m 0 min 0 min 0 W/m 16,1 km/h (3 Bft) 100,00 %
23.12.2021 06:14 -1,2 C -1,7 C -3,9 C 89 % 1014,2 hPa 0,0 l/m 0 min 0 min 0 W/m 16,1 km/h (3 Bft) 100,00 %
23.12.2021 06:16 -1,2 C -1,7 C -3,9 C 89 % 1014,0 hPa 0,0 l/m 0 min 0 min 0 W/m 25,7 km/h (4 Bft) 97,87 %
23.12.2021 06:18 -1,2 C -1,7 C -3,9 C 89 % 1013,9 hPa 0,0 l/m 0 min 0 min 0 W/m 16,1 km/h (3 Bft) 100,00 %
23.12.2021 06:20 -1,2 C -1,7 C -3,9 C 89 % 1014,0 hPa 0,0 l/m 0 min 0 min 0 W/m 19,3 km/h (3 Bft) 100,00 %
23.12.2021 06:22 -1,2 C -1,7 C -3,9 C 89 % 1014,2 hPa 0,0 l/m 0 min 0 min 0 W/m 12,9 km/h (3 Bft) 100,00 %
23.12.2021 06:24 -1,2 C -1,7 C -3,9 C 89 % 1014,3 hPa 0,0 l/m 0 min 0 min 0 W/m 6,4 km/h (2 Bft) 100,00 %
23.12.2021 06:26 -1,2 C -1,7 C -3,9 C 89 % 1014,2 hPa 0,0 l/m 0 min 0 min 0 W/m 12,9 km/h (3 Bft) 100,00 %
23.12.2021 06:28 -1,2 C -1,7 C -3,9 C 89 % 1014,1 hPa 0,0 l/m 0 min 0 min 0 W/m 16,1 km/h (3 Bft) 100,00 %
23.12.2021 06:30 -1,2 C -1,7 C -3,9 C 89 % 1014,0 hPa 0,0 l/m 0 min 0 min 0 W/m 19,3 km/h (3 Bft) 97,87 %
23.12.2021 06:32 -1,2 C -1,7 C -3,9 C 89 % 1014,0 hPa 0,0 l/m 0 min 0 min 0 W/m 16,1 km/h (3 Bft) 97,87 %
23.12.2021 06:34 -1,2 C -1,7 C -3,9 C 89 % 1014,0 hPa 0,0 l/m 0 min 0 min 0 W/m 19,3 km/h (3 Bft) 97,87 %
23.12.2021 06:36 -1,2 C -1,7 C -3,9 C 90 % 1014,1 hPa 0,0 l/m 0 min 0 min 0 W/m 6,4 km/h (2 Bft) 97,87 %
23.12.2021 06:38 -1,2 C -1,7 C -3,9 C 90 % 1014,1 hPa 0,0 l/m 0 min 0 min 0 W/m 12,9 km/h (3 Bft) 97,87 %
23.12.2021 06:40 -1,2 C -1,7 C -3,9 C 90 % 1014,0 hPa 0,0 l/m 0 min 0 min 0 W/m 12,9 km/h (3 Bft) 96,23 %
23.12.2021 06:42 -1,2 C -1,7 C -3,9 C 90 % 1014,0 hPa 0,0 l/m 0 min 0 min 0 W/m 12,9 km/h (3 Bft) 97,87 %
23.12.2021 06:44 -1,2 C -1,7 C -3,9 C 89 % 1014,0 hPa 0,0 l/m 0 min 0 min 0 W/m 16,1 km/h (3 Bft) 97,87 %
23.12.2021 06:46 -1,1 C -1,7 C -3,9 C 89 % 1014,0 hPa 0,0 l/m 0 min 0 min 0 W/m 9,7 km/h (2 Bft) 97,87 %
23.12.2021 06:48 -1,1 C -1,7 C -3,9 C 89 % 1013,9 hPa 0,0 l/m 0 min 0 min 0 W/m 12,9 km/h (3 Bft) 97,87 %
23.12.2021 06:50 -1,1 C -1,7 C -3,9 C 89 % 1013,8 hPa 0,0 l/m 0 min 0 min 0 W/m 16,1 km/h (3 Bft) 97,87 %
23.12.2021 06:52 -1,1 C -1,7 C -3,9 C 89 % 1013,8 hPa 0,0 l/m 0 min 0 min 0 W/m 16,1 km/h (3 Bft) 97,83 %
23.12.2021 06:54 -1,1 C -1,7 C -3,9 C 90 % 1013,7 hPa 0,0 l/m 0 min 0 min 0 W/m 19,3 km/h (3 Bft) 97,87 %
23.12.2021 06:56 -1,1 C -1,7 C -3,9 C 90 % 1013,6 hPa 0,0 l/m 0 min 0 min 0 W/m 16,1 km/h (3 Bft) 95,74 %
23.12.2021 06:58 -1,1 C -1,7 C -3,9 C 90 % 1013,6 hPa 0,0 l/m 0 min 0 min 0 W/m 19,3 km/h (3 Bft) 95,74 %
23.12.2021 07:00 -1,1 C -1,7 C -3,3 C 90 % 1013,6 hPa 0,0 l/m 0 min 0 min 0 W/m 16,1 km/h (3 Bft) 95,74 %
23.12.2021 07:02 -1,1 C -1,7 C -3,3 C 90 % 1013,8 hPa 0,0 l/m 0 min 0 min 0 W/m 12,9 km/h (3 Bft) 97,92 %
23.12.2021 07:04 -1,1 C -1,7 C -3,3 C 90 % 1013,7 hPa 0,0 l/m 0 min 0 min 0 W/m 16,1 km/h (3 Bft) 97,83 %
23.12.2021 07:06 -1,0 C -1,7 C -3,3 C 90 % 1013,6 hPa 0,0 l/m 0 min 0 min 0 W/m 19,3 km/h (3 Bft) 97,87 %
23.12.2021 07:08 -1,0 C -1,7 C -3,3 C 90 % 1013,6 hPa 0,0 l/m 0 min 0 min 0 W/m 19,3 km/h (3 Bft) 98,00 %
23.12.2021 07:10 -1,0 C -1,7 C -3,3 C 90 % 1013,5 hPa 0,0 l/m 0 min 0 min 0 W/m 16,1 km/h (3 Bft) 95,74 %
23.12.2021 07:12 -1,0 C -1,7 C -3,3 C 90 % 1013,5 hPa 0,0 l/m 0 min 0 min 0 W/m 16,1 km/h (3 Bft) 95,74 %
23.12.2021 07:14 -1,0 C -1,7 C -3,3 C 90 % 1013,6 hPa 0,0 l/m 0 min 0 min 0 W/m 19,3 km/h (3 Bft) 97,83 %
23.12.2021 07:16 -1,0 C -1,7 C -3,3 C 90 % 1013,6 hPa 0,0 l/m 0 min 0 min 0 W/m 9,7 km/h (2 Bft) 97,87 %
23.12.2021 07:18 -0,9 C -1,7 C -3,3 C 90 % 1013,6 hPa 0,0 l/m 0 min 0 min 0 W/m 16,1 km/h (3 Bft) 91,49 %
23.12.2021 07:20 -0,9 C -1,7 C -3,3 C 90 % 1013,6 hPa 0,0 l/m 0 min 0 min 0 W/m 16,1 km/h (3 Bft) 95,74 %
23.12.2021 07:22 -0,9 C -1,1 C -3,3 C 90 % 1013,6 hPa 0,0 l/m 0 min 0 min 0 W/m 16,1 km/h (3 Bft) 97,87 %
23.12.2021 07:24 -0,9 C -1,1 C -3,3 C 90 % 1013,5 hPa 0,0 l/m 0 min 0 min 0 W/m 19,3 km/h (3 Bft) 95,74 %
23.12.2021 07:26 -0,9 C -1,1 C -3,3 C 90 % 1013,5 hPa 0,0 l/m 0 min 0 min 0 W/m 16,1 km/h (3 Bft) 95,65 %
23.12.2021 07:28 -0,9 C -1,1 C -3,3 C 90 % 1013,5 hPa 0,0 l/m 0 min 0 min 0 W/m 19,3 km/h (3 Bft) 95,74 %
23.12.2021 07:30 -0,9 C -1,1 C -3,3 C 90 % 1013,5 hPa 0,0 l/m 0 min 0 min 0 W/m 16,1 km/h (3 Bft) 50,00 %
23.12.2021 07:32 -0,9 C -1,1 C -3,3 C 90 % 1013,4 hPa 0,0 l/m 0 min 0 min 0 W/m 16,1 km/h (3 Bft) 95,74 %
23.12.2021 07:34 -0,8 C -1,1 C -3,3 C 90 % 1013,5 hPa 0,0 l/m 0 min 0 min 0 W/m 12,9 km/h (3 Bft) 97,87 %
23.12.2021 07:39 -0,8 C -1,1 C -3,3 C 90 % 1013,7 hPa 0,0 l/m 0 min 0 min 0 W/m 16,1 km/h (3 Bft) 96,97 %
23.12.2021 07:40 -0,8 C -1,1 C -3,3 C 90 % 1013,7 hPa 0,0 l/m 0 min 0 min 0 W/m 12,9 km/h (3 Bft) 95,65 %
23.12.2021 07:42 -0,8 C -1,1 C -3,3 C 90 % 1013,6 hPa 0,0 l/m 0 min 0 min 0 W/m 16,1 km/h (3 Bft) 91,49 %
23.12.2021 07:44 -0,8 C -1,1 C -3,3 C 90 % 1013,6 hPa 0,0 l/m 0 min 0 min 0 W/m 12,9 km/h (3 Bft) 100,00 %
23.12.2021 07:46 -0,8 C -1,1 C -3,3 C 90 % 1013,5 hPa 0,0 l/m 0 min 0 min 0 W/m 12,9 km/h (3 Bft) 95,74 %
23.12.2021 07:48 -0,8 C -1,1 C -3,3 C 90 % 1013,5 hPa 0,0 l/m 0 min 0 min 0 W/m 16,1 km/h (3 Bft) 95,65 %
23.12.2021 07:50 -0,8 C -1,1 C -3,3 C 90 % 1013,4 hPa 0,0 l/m 0 min 0 min 0 W/m 16,1 km/h (3 Bft) 95,74 %
23.12.2021 07:52 -0,8 C -1,1 C -3,3 C 90 % 1013,5 hPa 0,0 l/m 0 min 0 min 0 W/m 12,9 km/h (3 Bft) 95,74 %
23.12.2021 07:54 -0,8 C -1,1 C -3,3 C 90 % 1013,4 hPa 0,0 l/m 0 min 0 min 0 W/m 19,3 km/h (3 Bft) 95,74 %
23.12.2021 07:56 -0,7 C -1,1 C -3,3 C 90 % 1013,4 hPa 0,0 l/m 0 min 0 min 0 W/m 16,1 km/h (3 Bft) 97,87 %
23.12.2021 07:58 -0,8 C -1,1 C -3,3 C 90 % 1013,4 hPa 0,0 l/m 0 min 0 min 0 W/m 16,1 km/h (3 Bft) 97,87 %
23.12.2021 08:00 -0,7 C -1,1 C -3,3 C 90 % 1013,5 hPa 0,0 l/m 0 min 0 min 0 W/m 16,1 km/h (3 Bft) 97,87 %
23.12.2021 08:02 -0,7 C -1,1 C -3,3 C 90 % 1013,5 hPa 0,0 l/m 0 min 0 min 0 W/m 16,1 km/h (3 Bft) 100,00 %
23.12.2021 08:04 -0,7 C -1,1 C -3,3 C 90 % 1013,4 hPa 0,0 l/m 0 min 0 min 0 W/m 16,1 km/h (3 Bft) 100,00 %
23.12.2021 08:06 -0,7 C -1,1 C -3,3 C 90 % 1013,3 hPa 0,0 l/m 0 min 0 min 0 W/m 19,3 km/h (3 Bft) 100,00 %
23.12.2021 08:08 -0,7 C -1,1 C -3,3 C 90 % 1013,3 hPa 0,0 l/m 0 min 0 min 0 W/m 12,9 km/h (3 Bft) 100,00 %
23.12.2021 08:10 -0,7 C -1,1 C -3,3 C 90 % 1013,4 hPa 0,0 l/m 0 min 0 min 0 W/m 16,1 km/h (3 Bft) 100,00 %
23.12.2021 08:12 -0,7 C -1,1 C -3,3 C 90 % 1013,4 hPa 0,0 l/m 0 min 0 min 0 W/m 22,5 km/h (4 Bft) 100,00 %
23.12.2021 08:14 -0,7 C -1,1 C -3,3 C 90 % 1013,4 hPa 0,0 l/m 0 min 0 min 0 W/m 16,1 km/h (3 Bft) 100,00 %
23.12.2021 08:16 -0,7 C -1,1 C -3,3 C 90 % 1013,4 hPa 0,0 l/m 0 min 0 min 0 W/m 16,1 km/h (3 Bft) 100,00 %
23.12.2021 08:18 -0,7 C -1,1 C -3,3 C 90 % 1013,3 hPa 0,0 l/m 0 min 0 min 0 W/m 12,9 km/h (3 Bft) 100,00 %
23.12.2021 08:20 -0,7 C -1,1 C -3,3 C 90 % 1013,1 hPa 0,0 l/m 0 min 0 min 0 W/m 16,1 km/h (3 Bft) 100,00 %
23.12.2021 08:22 -0,7 C -1,1 C -3,3 C 90 % 1013,1 hPa 0,0 l/m 0 min 0 min 0 W/m 12,9 km/h (3 Bft) 100,00 %
23.12.2021 08:24 -0,7 C -1,1 C -3,3 C 90 % 1013,2 hPa 0,0 l/m 0 min 0 min 0 W/m 12,9 km/h (3 Bft) 100,00 %
23.12.2021 08:26 -0,7 C -1,1 C -3,3 C 90 % 1013,3 hPa 0,0 l/m 0 min 0 min 0 W/m 16,1 km/h (3 Bft) 100,00 %
23.12.2021 08:28 -0,7 C -1,1 C -3,3 C 90 % 1013,3 hPa 0,0 l/m 0 min 0 min 0 W/m 16,1 km/h (3 Bft) 100,00 %
23.12.2021 08:30 -0,7 C -1,1 C -3,3 C 90 % 1013,2 hPa 0,0 l/m 0 min 0 min 0 W/m 16,1 km/h (3 Bft) 100,00 %
23.12.2021 08:32 -0,7 C -1,1 C -3,3 C 90 % 1013,2 hPa 0,0 l/m 0 min 0 min 0 W/m 12,9 km/h (3 Bft) 100,00 %
23.12.2021 08:34 -0,7 C -1,1 C -3,3 C 90 % 1013,1 hPa 0,0 l/m 0 min 0 min 0 W/m 16,1 km/h (3 Bft) 100,00 %
23.12.2021 08:36 -0,6 C -1,1 C -3,3 C 90 % 1013,2 hPa 0,0 l/m 0 min 0 min 0 W/m 19,3 km/h (3 Bft) 97,83 %
23.12.2021 08:38 -0,6 C -1,1 C -3,3 C 90 % 1013,1 hPa 0,0 l/m 0 min 0 min 0 W/m 12,9 km/h (3 Bft) 100,00 %
23.12.2021 08:40 -0,6 C -1,1 C -3,3 C 90 % 1013,2 hPa 0,0 l/m 0 min 0 min 0 W/m 19,3 km/h (3 Bft) 100,00 %
23.12.2021 08:42 -0,6 C -1,1 C -3,3 C 90 % 1013,1 hPa 0,0 l/m 0 min 0 min 0 W/m 12,9 km/h (3 Bft) 97,87 %
23.12.2021 08:43 -0,6 C -1,1 C -3,3 C 90 % 1013,1 hPa 0,0 l/m 0 min 0 min 0 W/m 16,1 km/h (3 Bft) 100,00 %
23.12.2021 08:46 -0,6 C -1,1 C -3,3 C 90 % 1013,2 hPa 0,0 l/m 0 min 0 min 0 W/m 16,1 km/h (3 Bft) 97,83 %
23.12.2021 08:48 -0,6 C -1,1 C -2,8 C 90 % 1013,3 hPa 0,0 l/m 0 min 0 min 0 W/m 6,4 km/h (2 Bft) 100,00 %
23.12.2021 08:50 -0,6 C -1,1 C -2,8 C 90 % 1013,3 hPa 0,0 l/m 0 min 0 min 0 W/m 16,1 km/h (3 Bft) 97,87 %
23.12.2021 08:52 -0,6 C -1,1 C -2,8 C 90 % 1013,4 hPa 0,0 l/m 0 min 0 min 0 W/m 6,4 km/h (2 Bft) 97,87 %
23.12.2021 08:54 -0,6 C -1,1 C -2,8 C 90 % 1013,3 hPa 0,0 l/m 0 min 0 min 4 W/m 12,9 km/h (3 Bft) 100,00 %
23.12.2021 08:56 -0,6 C -1,1 C -2,8 C 90 % 1013,3 hPa 0,0 l/m 0 min 0 min 5 W/m 16,1 km/h (3 Bft) 97,87 %
23.12.2021 08:58 -0,6 C -1,1 C -2,8 C 90 % 1013,3 hPa 0,0 l/m 0 min 0 min 5 W/m 16,1 km/h (3 Bft) 100,00 %
23.12.2021 09:00 -0,6 C -1,1 C -2,8 C 90 % 1013,2 hPa 0,0 l/m 0 min 0 min 5 W/m 16,1 km/h (3 Bft) 97,87 %
23.12.2021 09:02 -0,6 C -1,1 C -2,8 C 90 % 1013,1 hPa 0,0 l/m 0 min 0 min 7 W/m 19,3 km/h (3 Bft) 97,92 %
23.12.2021 09:04 -0,6 C -1,1 C -2,8 C 90 % 1013,2 hPa 0,0 l/m 0 min 0 min 7 W/m 12,9 km/h (3 Bft) 100,00 %
23.12.2021 09:06 -0,5 C -1,1 C -2,8 C 90 % 1013,2 hPa 0,0 l/m 0 min 0 min 7 W/m 12,9 km/h (3 Bft) 100,00 %
23.12.2021 09:08 -0,5 C -1,1 C -2,8 C 90 % 1013,2 hPa 0,0 l/m 0 min 0 min 7 W/m 12,9 km/h (3 Bft) 100,00 %
23.12.2021 09:10 -0,5 C -1,1 C -2,8 C 90 % 1013,2 hPa 0,0 l/m 0 min 0 min 7 W/m 12,9 km/h (3 Bft) 93,62 %
23.12.2021 09:12 -0,5 C -1,1 C -2,8 C 90 % 1013,2 hPa 0,0 l/m 0 min 0 min 7 W/m 12,9 km/h (3 Bft) 97,87 %
23.12.2021 09:14 -0,5 C -1,1 C -2,8 C 90 % 1013,2 hPa 0,0 l/m 0 min 0 min 8 W/m 12,9 km/h (3 Bft) 100,00 %
23.12.2021 09:16 -0,4 C -1,1 C -2,8 C 90 % 1013,1 hPa 0,0 l/m 0 min 0 min 10 W/m 16,1 km/h (3 Bft) 97,87 %
23.12.2021 09:18 -0,4 C -1,1 C -2,8 C 90 % 1013,1 hPa 0,0 l/m 0 min 0 min 11 W/m 19,3 km/h (3 Bft) 100,00 %
23.12.2021 09:20 -0,4 C -1,1 C -2,8 C 90 % 1013,1 hPa 0,0 l/m 0 min 0 min 11 W/m 16,1 km/h (3 Bft) 97,87 %
23.12.2021 09:22 -0,4 C -0,6 C -2,8 C 90 % 1013,1 hPa 0,0 l/m 0 min 0 min 11 W/m 19,3 km/h (3 Bft) 97,87 %
23.12.2021 09:24 -0,4 C -0,6 C -2,8 C 90 % 1013,0 hPa 0,0 l/m 0 min 0 min 12 W/m 19,3 km/h (3 Bft) 97,87 %
23.12.2021 09:26 -0,4 C -0,6 C -2,8 C 90 % 1013,0 hPa 0,0 l/m 0 min 0 min 13 W/m 12,9 km/h (3 Bft) 95,74 %
23.12.2021 09:28 -0,4 C -0,6 C -2,8 C 90 % 1013,1 hPa 0,0 l/m 0 min 0 min 14 W/m 16,1 km/h (3 Bft) 95,74 %
23.12.2021 09:30 -0,4 C -0,6 C -2,8 C 90 % 1013,1 hPa 0,0 l/m 0 min 0 min 16 W/m 16,1 km/h (3 Bft) 91,49 %
23.12.2021 09:32 -0,3 C -0,6 C -2,8 C 90 % 1013,1 hPa 0,0 l/m 0 min 0 min 16 W/m 16,1 km/h (3 Bft) 91,30 %
23.12.2021 09:34 -0,3 C -0,6 C -2,8 C 90 % 1013,0 hPa 0,0 l/m 0 min 0 min 16 W/m 12,9 km/h (3 Bft) 95,74 %
23.12.2021 09:36 -0,3 C -0,6 C -2,8 C 90 % 1012,9 hPa 0,0 l/m 0 min 0 min 15 W/m 16,1 km/h (3 Bft) 93,62 %
23.12.2021 09:38 -0,3 C -0,6 C -2,8 C 90 % 1012,9 hPa 0,0 l/m 0 min 0 min 14 W/m 25,7 km/h (4 Bft) 95,74 %
23.12.2021 09:40 -0,3 C -0,6 C -2,8 C 90 % 1012,9 hPa 0,0 l/m 0 min 0 min 14 W/m 16,1 km/h (3 Bft) 94,29 %
23.12.2021 09:42 -0,3 C -0,6 C -2,8 C 90 % 1012,9 hPa 0,0 l/m 0 min 0 min 15 W/m 12,9 km/h (3 Bft) 93,62 %
23.12.2021 09:44 -0,3 C -0,6 C -2,8 C 90 % 1013,0 hPa 0,0 l/m 0 min 0 min 16 W/m 19,3 km/h (3 Bft) 91,49 %
23.12.2021 09:46 -0,3 C -0,6 C -2,8 C 90 % 1012,9 hPa 0,0 l/m 0 min 0 min 18 W/m 16,1 km/h (3 Bft) 93,48 %
23.12.2021 09:48 -0,2 C -0,6 C -2,8 C 90 % 1012,9 hPa 0,0 l/m 0 min 0 min 20 W/m 19,3 km/h (3 Bft) 93,62 %
23.12.2021 09:50 -0,2 C -0,6 C -2,8 C 90 % 1012,9 hPa 0,0 l/m 0 min 0 min 22 W/m 16,1 km/h (3 Bft) 93,62 %
23.12.2021 09:52 -0,2 C -0,6 C -2,8 C 90 % 1012,9 hPa 0,0 l/m 0 min 0 min 23 W/m 19,3 km/h (3 Bft) 93,62 %
23.12.2021 09:54 -0,2 C -0,6 C -2,8 C 90 % 1012,9 hPa 0,0 l/m 0 min 0 min 25 W/m 16,1 km/h (3 Bft) 91,49 %
23.12.2021 09:56 -0,2 C -0,6 C -2,8 C 90 % 1012,9 hPa 0,0 l/m 0 min 0 min 25 W/m 12,9 km/h (3 Bft) 95,65 %
23.12.2021 09:58 -0,2 C -0,6 C -2,8 C 90 % 1012,8 hPa 0,0 l/m 0 min 0 min 26 W/m 12,9 km/h (3 Bft) 95,74 %
23.12.2021 10:00 -0,2 C -0,6 C -2,8 C 90 % 1012,8 hPa 0,0 l/m 0 min 0 min 26 W/m 22,5 km/h (4 Bft) 95,74 %
23.12.2021 10:02 -0,2 C -0,6 C -2,8 C 90 % 1012,9 hPa 0,0 l/m 0 min 0 min 26 W/m 9,7 km/h (2 Bft) 95,74 %
23.12.2021 10:04 -0,1 C -0,6 C -2,8 C 90 % 1013,0 hPa 0,0 l/m 0 min 0 min 30 W/m 6,4 km/h (2 Bft) 95,74 %
23.12.2021 10:06 -0,1 C -0,6 C -2,8 C 90 % 1013,0 hPa 0,0 l/m 0 min 0 min 34 W/m 12,9 km/h (3 Bft) 95,74 %
23.12.2021 10:08 -0,1 C -0,6 C -2,2 C 90 % 1012,9 hPa 0,0 l/m 0 min 0 min 39 W/m 9,7 km/h (2 Bft) 95,65 %
23.12.2021 10:10 -0,1 C 0,0 C -2,2 C 90 % 1013,0 hPa 0,0 l/m 0 min 0 min 42 W/m 12,9 km/h (3 Bft) 91,49 %
23.12.2021 10:12 -0,1 C 0,0 C -2,2 C 90 % 1013,0 hPa 0,0 l/m 0 min 0 min 46 W/m 12,9 km/h (3 Bft) 93,62 %
23.12.2021 10:14 -0,1 C 0,0 C -2,2 C 90 % 1013,0 hPa 0,0 l/m 0 min 0 min 48 W/m 12,9 km/h (3 Bft) 95,74 %
23.12.2021 10:16 -0,1 C 0,0 C -2,2 C 90 % 1012,9 hPa 0,0 l/m 0 min 0 min 49 W/m 12,9 km/h (3 Bft) 97,87 %
23.12.2021 10:18 0,0 C 0,0 C -2,2 C 90 % 1012,9 hPa 0,0 l/m 0 min 0 min 50 W/m 12,9 km/h (3 Bft) 97,87 %
23.12.2021 10:20 0,0 C 0,0 C -2,2 C 90 % 1012,8 hPa 0,0 l/m 0 min 0 min 54 W/m 16,1 km/h (3 Bft) 95,65 %
23.12.2021 10:22 0,1 C 0,0 C -2,2 C 90 % 1012,8 hPa 0,0 l/m 0 min 0 min 60 W/m 6,4 km/h (2 Bft) 100,00 %
23.12.2021 10:24 0,1 C 0,0 C -2,2 C 90 % 1012,8 hPa 0,0 l/m 0 min 0 min 66 W/m 6,4 km/h (2 Bft) 100,00 %
23.12.2021 10:26 0,1 C 0,0 C -2,2 C 90 % 1012,7 hPa 0,0 l/m 0 min 0 min 72 W/m 9,7 km/h (2 Bft) 100,00 %
23.12.2021 10:28 0,1 C 0,0 C -2,2 C 90 % 1012,7 hPa 0,0 l/m 0 min 0 min 75 W/m 16,1 km/h (3 Bft) 97,87 %
23.12.2021 10:30 0,2 C 0,0 C -2,2 C 90 % 1012,7 hPa 0,0 l/m 0 min 0 min 72 W/m 16,1 km/h (3 Bft) 100,00 %
23.12.2021 10:32 0,2 C 0,0 C -2,2 C 90 % 1012,7 hPa 0,0 l/m 0 min 0 min 70 W/m 12,9 km/h (3 Bft) 100,00 %
23.12.2021 10:34 0,2 C 0,0 C -2,2 C 89 % 1012,7 hPa 0,0 l/m 0 min 0 min 69 W/m 12,9 km/h (3 Bft) 100,00 %
23.12.2021 10:36 0,2 C 0,6 C -2,2 C 89 % 1012,6 hPa 0,0 l/m 0 min 0 min 73 W/m 9,7 km/h (2 Bft) 97,87 %
23.12.2021 10:38 0,3 C 0,6 C -2,2 C 89 % 1012,6 hPa 0,0 l/m 0 min 0 min 80 W/m 6,4 km/h (2 Bft) 100,00 %
23.12.2021 10:40 0,3 C 0,6 C -1,7 C 89 % 1012,5 hPa 0,0 l/m 0 min 0 min 86 W/m 16,1 km/h (3 Bft) 100,00 %
23.12.2021 10:42 0,3 C 0,6 C -1,7 C 89 % 1012,5 hPa 0,0 l/m 0 min 0 min 84 W/m 16,1 km/h (3 Bft) 100,00 %
23.12.2021 10:44 0,4 C 0,6 C -1,7 C 89 % 1012,5 hPa 0,0 l/m 0 min 0 min 82 W/m 16,1 km/h (3 Bft) 100,00 %
23.12.2021 10:46 0,4 C 0,6 C -1,7 C 89 % 1012,5 hPa 0,0 l/m 0 min 0 min 84 W/m 16,1 km/h (3 Bft) 100,00 %
23.12.2021 10:48 0,4 C 0,6 C -1,7 C 89 % 1012,7 hPa 0,0 l/m 0 min 0 min 84 W/m 16,1 km/h (3 Bft) 100,00 %
23.12.2021 10:50 0,5 C 0,6 C -1,7 C 89 % 1012,7 hPa 0,0 l/m 0 min 0 min 88 W/m 16,1 km/h (3 Bft) 100,00 %
23.12.2021 10:52 0,5 C 0,6 C -1,7 C 89 % 1012,6 hPa 0,0 l/m 0 min 0 min 105 W/m 12,9 km/h (3 Bft) 100,00 %
23.12.2021 10:54 0,6 C 0,6 C -1,7 C 89 % 1012,5 hPa 0,0 l/m 0 min 0 min 83 W/m 12,9 km/h (3 Bft) 100,00 %
23.12.2021 10:56 0,6 C 0,6 C -1,7 C 88 % 1012,4 hPa 0,0 l/m 0 min 0 min 83 W/m 16,1 km/h (3 Bft) 100,00 %
23.12.2021 10:58 0,6 C 0,6 C -1,7 C 88 % 1012,4 hPa 0,0 l/m 0 min 0 min 83 W/m 12,9 km/h (3 Bft) 100,00 %
23.12.2021 11:00 0,6 C 0,6 C -1,7 C 88 % 1012,4 hPa 0,0 l/m 0 min 0 min 90 W/m 19,3 km/h (3 Bft) 100,00 %
23.12.2021 11:02 0,6 C 0,6 C -1,7 C 88 % 1012,4 hPa 0,0 l/m 0 min 0 min 96 W/m 12,9 km/h (3 Bft) 100,00 %
23.12.2021 11:04 0,6 C 0,6 C -1,7 C 88 % 1012,4 hPa 0,0 l/m 0 min 0 min 98 W/m 19,3 km/h (3 Bft) 97,87 %
23.12.2021 11:06 0,6 C 0,6 C -1,7 C 88 % 1012,4 hPa 0,0 l/m 0 min 0 min 98 W/m 16,1 km/h (3 Bft) 100,00 %
23.12.2021 11:08 0,7 C 1,1 C -1,7 C 88 % 1012,4 hPa 0,0 l/m 0 min 0 min 99 W/m 16,1 km/h (3 Bft) 95,74 %
23.12.2021 11:10 0,7 C 1,1 C -1,7 C 88 % 1012,3 hPa 0,0 l/m 0 min 0 min 103 W/m 12,9 km/h (3 Bft) 100,00 %
23.12.2021 11:12 0,7 C 1,1 C -1,7 C 88 % 1012,3 hPa 0,0 l/m 0 min 0 min 109 W/m 16,1 km/h (3 Bft) 97,87 %
23.12.2021 11:14 0,8 C 1,1 C -1,7 C 88 % 1012,3 hPa 0,0 l/m 0 min 0 min 115 W/m 16,1 km/h (3 Bft) 97,87 %
23.12.2021 11:16 0,8 C 1,1 C -1,7 C 88 % 1012,2 hPa 0,0 l/m 0 min 0 min 121 W/m 12,9 km/h (3 Bft) 97,87 %
23.12.2021 11:18 0,8 C 1,1 C -1,7 C 88 % 1012,1 hPa 0,0 l/m 0 min 0 min 129 W/m 12,9 km/h (3 Bft) 100,00 %
23.12.2021 11:20 0,9 C 1,1 C -1,7 C 87 % 1012,1 hPa 0,0 l/m 0 min 0 min 128 W/m 16,1 km/h (3 Bft) 97,87 %
23.12.2021 11:22 0,9 C 1,1 C -1,1 C 87 % 1012,0 hPa 0,0 l/m 0 min 0 min 125 W/m 12,9 km/h (3 Bft) 95,74 %
23.12.2021 11:24 0,9 C 1,1 C -1,1 C 87 % 1012,0 hPa 0,0 l/m 0 min 0 min 120 W/m 12,9 km/h (3 Bft) 97,87 %
23.12.2021 11:26 1,0 C 1,1 C -1,1 C 87 % 1012,0 hPa 0,0 l/m 0 min 0 min 113 W/m 12,9 km/h (3 Bft) 97,87 %
23.12.2021 11:28 1,0 C 1,1 C -1,1 C 87 % 1012,0 hPa 0,0 l/m 0 min 0 min 103 W/m 16,1 km/h (3 Bft) 98,11 %
23.12.2021 11:30 1,1 C 1,1 C -1,1 C 87 % 1012,0 hPa 0,0 l/m 0 min 0 min 99 W/m 16,1 km/h (3 Bft) 93,88 %
23.12.2021 11:32 1,1 C 1,1 C -1,1 C 87 % 1011,9 hPa 0,0 l/m 0 min 0 min 98 W/m 12,9 km/h (3 Bft) 98,00 %
23.12.2021 11:34 1,1 C 1,1 C -1,1 C 87 % 1011,8 hPa 0,0 l/m 0 min 0 min 99 W/m 16,1 km/h (3 Bft) 97,14 %
23.12.2021 11:36 1,1 C 1,1 C -1,1 C 86 % 1011,9 hPa 0,0 l/m 0 min 0 min 101 W/m 19,3 km/h (3 Bft) 94,34 %
23.12.2021 11:38 1,2 C 1,1 C -1,1 C 86 % 1011,8 hPa 0,0 l/m 0 min 0 min 102 W/m 16,1 km/h (3 Bft) 95,74 %
23.12.2021 11:40 1,2 C 1,1 C -1,1 C 86 % 1011,7 hPa 0,0 l/m 0 min 0 min 100 W/m 16,1 km/h (3 Bft) 97,87 %
23.12.2021 11:42 1,2 C 1,1 C -1,1 C 86 % 1011,6 hPa 0,0 l/m 0 min 0 min 100 W/m 19,3 km/h (3 Bft) 97,83 %
23.12.2021 11:44 1,2 C 1,1 C -1,1 C 86 % 1011,6 hPa 0,0 l/m 0 min 0 min 99 W/m 12,9 km/h (3 Bft) 98,00 %
23.12.2021 11:46 1,2 C 1,1 C -1,1 C 86 % 1011,5 hPa 0,0 l/m 0 min 0 min 98 W/m 9,7 km/h (2 Bft) 98,00 %
23.12.2021 11:48 1,3 C 1,1 C -1,1 C 86 % 1011,5 hPa 0,0 l/m 0 min 0 min 98 W/m 16,1 km/h (3 Bft) 95,74 %
23.12.2021 11:50 1,3 C 1,1 C -1,1 C 86 % 1011,5 hPa 0,0 l/m 0 min 0 min 99 W/m 12,9 km/h (3 Bft) 100,00 %
23.12.2021 11:52 1,3 C 1,1 C -1,1 C 86 % 1011,4 hPa 0,0 l/m 0 min 0 min 101 W/m 16,1 km/h (3 Bft) 100,00 %
23.12.2021 11:54 1,3 C 1,1 C -1,1 C 86 % 1011,5 hPa 0,0 l/m 0 min 0 min 105 W/m 16,1 km/h (3 Bft) 95,92 %
23.12.2021 11:56 1,3 C 1,1 C -1,1 C 86 % 1011,5 hPa 0,0 l/m 0 min 0 min 108 W/m 12,9 km/h (3 Bft) 98,00 %
23.12.2021 11:58 1,3 C 1,7 C -1,1 C 86 % 1011,4 hPa 0,0 l/m 0 min 0 min 110 W/m 19,3 km/h (3 Bft) 100,00 %
23.12.2021 12:00 1,4 C 1,7 C -1,1 C 86 % 1011,3 hPa 0,0 l/m 0 min 0 min 111 W/m 16,1 km/h (3 Bft) 100,00 %
23.12.2021 12:02 1,4 C 1,7 C -1,1 C 86 % 1011,3 hPa 0,0 l/m 0 min 0 min 111 W/m 16,1 km/h (3 Bft) 100,00 %
23.12.2021 12:04 1,4 C 1,7 C -1,1 C 86 % 1011,3 hPa 0,0 l/m 0 min 0 min 111 W/m 6,4 km/h (2 Bft) 100,00 %
23.12.2021 12:08 1,4 C 1,7 C -1,1 C 86 % 1011,2 hPa 0,0 l/m 0 min 0 min 104 W/m 16,1 km/h (3 Bft) 100,00 %
23.12.2021 12:10 1,5 C 1,7 C -1,1 C 86 % 1011,2 hPa 0,0 l/m 0 min 0 min 92 W/m 12,9 km/h (3 Bft) 100,00 %
23.12.2021 12:12 1,5 C 1,7 C -1,1 C 86 % 1011,1 hPa 0,0 l/m 0 min 0 min 84 W/m 12,9 km/h (3 Bft) 100,00 %
23.12.2021 12:14 1,6 C 1,7 C -1,1 C 86 % 1011,2 hPa 0,0 l/m 0 min 0 min 79 W/m 16,1 km/h (3 Bft) 95,74 %
23.12.2021 12:16 1,6 C 1,7 C -1,1 C 85 % 1011,1 hPa 0,0 l/m 0 min 0 min 79 W/m 12,9 km/h (3 Bft) 97,83 %
23.12.2021 12:18 1,6 C 1,7 C -1,1 C 85 % 1011,1 hPa 0,0 l/m 0 min 0 min 79 W/m 12,9 km/h (3 Bft) 97,87 %
23.12.2021 12:20 1,6 C 1,7 C -1,1 C 85 % 1011,2 hPa 0,0 l/m 0 min 0 min 77 W/m 9,7 km/h (2 Bft) 97,87 %
23.12.2021 12:22 1,6 C 1,7 C -1,1 C 85 % 1011,3 hPa 0,0 l/m 0 min 0 min 73 W/m 12,9 km/h (3 Bft) 96,23 %
23.12.2021 12:24 1,6 C 1,7 C -1,1 C 85 % 1011,2 hPa 0,0 l/m 0 min 0 min 73 W/m 12,9 km/h (3 Bft) 97,87 %
23.12.2021 12:26 1,7 C 1,7 C -1,1 C 85 % 1011,2 hPa 0,0 l/m 0 min 0 min 76 W/m 12,9 km/h (3 Bft) 93,62 %
23.12.2021 12:28 1,7 C 1,7 C -1,1 C 85 % 1011,2 hPa 0,0 l/m 0 min 0 min 83 W/m 6,4 km/h (2 Bft) 95,92 %
23.12.2021 12:30 1,7 C 1,7 C -1,1 C 85 % 1011,2 hPa 0,0 l/m 0 min 0 min 90 W/m 9,7 km/h (2 Bft) 94,74 %
23.12.2021 12:32 1,7 C 1,7 C -1,1 C 85 % 1011,1 hPa 0,0 l/m 0 min 0 min 91 W/m 12,9 km/h (3 Bft) 94,34 %
23.12.2021 12:34 1,7 C 1,7 C -1,1 C 85 % 1010,9 hPa 0,0 l/m 0 min 0 min 90 W/m 16,1 km/h (3 Bft) 95,74 %
23.12.2021 12:36 1,8 C 1,7 C -0,6 C 85 % 1011,0 hPa 0,0 l/m 0 min 0 min 91 W/m 19,3 km/h (3 Bft) 96,00 %
23.12.2021 12:38 1,8 C 1,7 C -0,6 C 85 % 1010,8 hPa 0,0 l/m 0 min 0 min 90 W/m 19,3 km/h (3 Bft) 94,74 %
23.12.2021 12:40 1,8 C 1,7 C -0,6 C 85 % 1010,8 hPa 0,0 l/m 0 min 0 min 88 W/m 19,3 km/h (3 Bft) 95,65 %
23.12.2021 12:42 1,8 C 1,7 C -0,6 C 85 % 1010,8 hPa 0,0 l/m 0 min 0 min 85 W/m 12,9 km/h (3 Bft) 96,23 %
23.12.2021 12:44 1,9 C 1,7 C -0,6 C 85 % 1010,8 hPa 0,0 l/m 0 min 0 min 84 W/m 9,7 km/h (2 Bft) 94,00 %
23.12.2021 12:46 1,9 C 1,7 C -0,6 C 85 % 1010,8 hPa 0,0 l/m 0 min 0 min 82 W/m 12,9 km/h (3 Bft) 94,74 %
23.12.2021 12:48 1,9 C 1,7 C -0,6 C 85 % 1010,7 hPa 0,0 l/m 0 min 0 min 79 W/m 16,1 km/h (3 Bft) 95,74 %
23.12.2021 12:50 1,9 C 1,7 C -0,6 C 85 % 1010,7 hPa 0,0 l/m 0 min 0 min 79 W/m 16,1 km/h (3 Bft) 96,23 %
23.12.2021 12:52 1,9 C 1,7 C -0,6 C 85 % 1010,7 hPa 0,0 l/m 0 min 0 min 79 W/m 16,1 km/h (3 Bft) 93,88 %
23.12.2021 12:54 1,9 C 1,7 C -0,6 C 84 % 1010,7 hPa 0,0 l/m 0 min 0 min 77 W/m 12,9 km/h (3 Bft) 95,74 %
23.12.2021 12:56 2,0 C 1,7 C -0,6 C 84 % 1010,6 hPa 0,0 l/m 0 min 0 min 77 W/m 19,3 km/h (3 Bft) 52,27 %
23.12.2021 12:58 2,0 C 1,7 C -0,6 C 84 % 1010,6 hPa 0,0 l/m 0 min 0 min 74 W/m 12,9 km/h (3 Bft) 97,87 %
23.12.2021 13:00 2,0 C 1,7 C -0,6 C 84 % 1010,5 hPa 0,0 l/m 0 min 0 min 72 W/m 16,1 km/h (3 Bft) 95,74 %
23.12.2021 13:02 2,0 C 1,7 C -0,6 C 84 % 1010,5 hPa 0,0 l/m 0 min 0 min 71 W/m 16,1 km/h (3 Bft) 97,37 %
23.12.2021 13:04 2,0 C 1,7 C -0,6 C 84 % 1010,5 hPa 0,0 l/m 0 min 0 min 70 W/m 12,9 km/h (3 Bft) 97,83 %
23.12.2021 13:06 2,0 C 1,7 C -0,6 C 84 % 1010,5 hPa 0,0 l/m 0 min 0 min 70 W/m 16,1 km/h (3 Bft) 98,11 %
23.12.2021 13:08 2,1 C 1,7 C -0,6 C 84 % 1010,4 hPa 0,0 l/m 0 min 0 min 72 W/m 19,3 km/h (3 Bft) 97,87 %
23.12.2021 13:10 2,1 C 1,7 C -0,6 C 84 % 1010,4 hPa 0,0 l/m 0 min 0 min 71 W/m 16,1 km/h (3 Bft) 96,00 %
23.12.2021 13:12 2,1 C 1,7 C -0,6 C 84 % 1010,4 hPa 0,0 l/m 0 min 0 min 70 W/m 16,1 km/h (3 Bft) 97,37 %
23.12.2021 13:14 2,1 C 1,7 C -0,6 C 84 % 1010,4 hPa 0,0 l/m 0 min 0 min 65 W/m 16,1 km/h (3 Bft) 97,87 %
23.12.2021 13:16 2,1 C 1,7 C -0,6 C 84 % 1010,3 hPa 0,0 l/m 0 min 0 min 62 W/m 19,3 km/h (3 Bft) 100,00 %
23.12.2021 13:18 2,1 C 1,7 C -0,6 C 84 % 1010,3 hPa 0,0 l/m 0 min 0 min 60 W/m 16,1 km/h (3 Bft) 100,00 %
23.12.2021 13:20 2,1 C 1,7 C -0,6 C 84 % 1010,3 hPa 0,0 l/m 0 min 0 min 60 W/m 6,4 km/h (2 Bft) 100,00 %
23.12.2021 13:22 2,1 C 1,7 C -0,6 C 84 % 1010,2 hPa 0,0 l/m 0 min 0 min 62 W/m 16,1 km/h (3 Bft) 100,00 %
23.12.2021 13:24 2,1 C 1,7 C -0,6 C 84 % 1010,2 hPa 0,0 l/m 0 min 0 min 66 W/m 12,9 km/h (3 Bft) 100,00 %
23.12.2021 13:26 2,1 C 2,2 C -0,6 C 84 % 1010,2 hPa 0,0 l/m 0 min 0 min 71 W/m 16,1 km/h (3 Bft) 100,00 %
23.12.2021 13:28 2,1 C 2,2 C -0,6 C 84 % 1010,1 hPa 0,0 l/m 0 min 0 min 75 W/m 12,9 km/h (3 Bft) 100,00 %
23.12.2021 13:30 2,2 C 2,2 C -0,6 C 84 % 1010,1 hPa 0,0 l/m 0 min 0 min 76 W/m 12,9 km/h (3 Bft) 97,37 %
23.12.2021 13:32 2,2 C 2,2 C -0,6 C 84 % 1010,0 hPa 0,0 l/m 0 min 0 min 78 W/m 12,9 km/h (3 Bft) 97,87 %
23.12.2021 13:34 2,2 C 2,2 C -0,6 C 84 % 1010,0 hPa 0,0 l/m 0 min 0 min 84 W/m 22,5 km/h (4 Bft) 97,87 %
23.12.2021 13:36 2,2 C 2,2 C -0,6 C 84 % 1010,0 hPa 0,0 l/m 0 min 0 min 90 W/m 19,3 km/h (3 Bft) 98,11 %
23.12.2021 13:38 2,2 C 2,2 C -0,6 C 84 % 1010,0 hPa 0,0 l/m 0 min 0 min 93 W/m 12,9 km/h (3 Bft) 97,83 %
23.12.2021 13:40 2,3 C 2,2 C -0,6 C 84 % 1010,0 hPa 0,0 l/m 0 min 0 min 100 W/m 12,9 km/h (3 Bft) 97,87 %
23.12.2021 13:42 2,3 C 2,2 C -0,6 C 84 % 1009,9 hPa 0,0 l/m 0 min 0 min 106 W/m 16,1 km/h (3 Bft) 97,87 %
23.12.2021 13:44 2,3 C 2,8 C -0,6 C 84 % 1009,9 hPa 0,0 l/m 0 min 0 min 113 W/m 16,1 km/h (3 Bft) 97,56 %
23.12.2021 13:46 2,4 C 2,8 C -0,6 C 84 % 1009,8 hPa 0,0 l/m 0 min 0 min 120 W/m 6,4 km/h (2 Bft) 98,21 %
23.12.2021 13:48 2,4 C 2,8 C 0,0 C 84 % 1009,8 hPa 0,0 l/m 0 min 0 min 127 W/m 9,7 km/h (2 Bft) 97,83 %
23.12.2021 13:50 2,4 C 2,8 C 0,0 C 84 % 1009,7 hPa 0,0 l/m 0 min 0 min 128 W/m 16,1 km/h (3 Bft) 97,87 %
23.12.2021 13:52 2,5 C 2,8 C 0,0 C 84 % 1009,6 hPa 0,0 l/m 0 min 0 min 123 W/m 12,9 km/h (3 Bft) 97,37 %
23.12.2021 13:54 2,6 C 3,3 C 0,0 C 84 % 1009,6 hPa 0,0 l/m 0 min 0 min 121 W/m 9,7 km/h (2 Bft) 97,87 %
23.12.2021 13:56 2,6 C 3,3 C 0,0 C 84 % 1009,5 hPa 0,0 l/m 0 min 0 min 117 W/m 9,7 km/h (2 Bft) 95,74 %
23.12.2021 13:58 2,6 C 2,8 C 0,0 C 84 % 1009,5 hPa 0,0 l/m 0 min 0 min 113 W/m 12,9 km/h (3 Bft) 97,87 %
23.12.2021 14:00 2,7 C 2,8 C 0,0 C 83 % 1009,5 hPa 0,0 l/m 0 min 0 min 106 W/m 6,4 km/h (2 Bft) 98,18 %
23.12.2021 14:02 2,7 C 2,8 C 0,0 C 83 % 1009,4 hPa 0,0 l/m 0 min 0 min 91 W/m 12,9 km/h (3 Bft) 97,92 %
23.12.2021 14:04 2,7 C 2,8 C 0,0 C 83 % 1009,4 hPa 0,0 l/m 0 min 0 min 80 W/m 12,9 km/h (3 Bft) 97,96 %
23.12.2021 14:06 2,7 C 2,8 C 0,0 C 83 % 1009,4 hPa 0,0 l/m 0 min 0 min 71 W/m 6,4 km/h (2 Bft) 100,00 %
23.12.2021 14:08 2,8 C 2,8 C 0,0 C 83 % 1009,3 hPa 0,0 l/m 0 min 0 min 62 W/m 19,3 km/h (3 Bft) 100,00 %
23.12.2021 14:10 2,8 C 2,8 C 0,0 C 83 % 1009,3 hPa 0,0 l/m 0 min 0 min 54 W/m 12,9 km/h (3 Bft) 100,00 %
23.12.2021 14:12 2,8 C 2,8 C 0,0 C 83 % 1009,2 hPa 0,0 l/m 0 min 0 min 49 W/m 6,4 km/h (2 Bft) 100,00 %
23.12.2021 14:14 2,8 C 2,8 C 0,0 C 83 % 1009,2 hPa 0,0 l/m 0 min 0 min 53 W/m 12,9 km/h (3 Bft) 100,00 %
23.12.2021 14:16 2,8 C 2,8 C 0,0 C 83 % 1009,2 hPa 0,0 l/m 0 min 0 min 55 W/m 6,4 km/h (2 Bft) 100,00 %
23.12.2021 14:18 2,9 C 2,8 C 0,0 C 83 % 1009,1 hPa 0,0 l/m 0 min 0 min 56 W/m 9,7 km/h (2 Bft) 100,00 %
23.12.2021 14:20 2,9 C 2,8 C 0,0 C 83 % 1009,2 hPa 0,0 l/m 0 min 0 min 55 W/m 12,9 km/h (3 Bft) 100,00 %
23.12.2021 14:22 2,9 C 2,8 C 0,0 C 83 % 1009,1 hPa 0,0 l/m 0 min 0 min 54 W/m 12,9 km/h (3 Bft) 98,15 %
23.12.2021 14:24 2,9 C 2,8 C 0,0 C 83 % 1009,1 hPa 0,0 l/m 0 min 0 min 56 W/m 22,5 km/h (4 Bft) 100,00 %
23.12.2021 14:26 2,9 C 2,8 C 0,0 C 83 % 1009,1 hPa 0,0 l/m 0 min 0 min 53 W/m 6,4 km/h (2 Bft) 100,00 %
23.12.2021 14:28 3,0 C 2,8 C 0,0 C 83 % 1009,1 hPa 0,0 l/m 0 min 0 min 49 W/m 6,4 km/h (2 Bft) 100,00 %
23.12.2021 14:30 3,0 C 2,8 C 0,0 C 83 % 1009,0 hPa 0,0 l/m 0 min 0 min 46 W/m 12,9 km/h (3 Bft) 98,15 %
23.12.2021 14:32 3,0 C 2,8 C 0,0 C 83 % 1009,0 hPa 0,0 l/m 0 min 0 min 42 W/m 12,9 km/h (3 Bft) 100,00 %
23.12.2021 14:34 3,1 C 2,8 C 0,0 C 83 % 1008,9 hPa 0,0 l/m 0 min 0 min 39 W/m 12,9 km/h (3 Bft) 97,87 %
23.12.2021 14:36 3,1 C 2,8 C 0,0 C 83 % 1008,7 hPa 0,0 l/m 0 min 0 min 40 W/m 12,9 km/h (3 Bft) 100,00 %
23.12.2021 14:38 3,1 C 2,8 C 0,0 C 83 % 1008,7 hPa 0,0 l/m 0 min 0 min 40 W/m 12,9 km/h (3 Bft) 100,00 %
23.12.2021 14:40 3,1 C 2,8 C 0,0 C 83 % 1008,7 hPa 0,0 l/m 0 min 0 min 40 W/m 16,1 km/h (3 Bft) 100,00 %
23.12.2021 14:42 3,1 C 2,8 C 0,0 C 83 % 1008,7 hPa 0,0 l/m 0 min 0 min 40 W/m 16,1 km/h (3 Bft) 100,00 %
23.12.2021 14:44 3,1 C 2,8 C 0,0 C 83 % 1008,6 hPa 0,0 l/m 0 min 0 min 40 W/m 12,9 km/h (3 Bft) 100,00 %
23.12.2021 14:46 3,1 C 2,8 C 0,0 C 83 % 1008,7 hPa 0,0 l/m 0 min 0 min 40 W/m 12,9 km/h (3 Bft) 100,00 %
23.12.2021 14:48 3,1 C 2,8 C 0,0 C 83 % 1008,6 hPa 0,0 l/m 0 min 0 min 40 W/m 16,1 km/h (3 Bft) 100,00 %
23.12.2021 14:50 3,1 C 2,8 C -0,6 C 83 % 1008,6 hPa 0,0 l/m 0 min 0 min 42 W/m 16,1 km/h (3 Bft) 100,00 %
23.12.2021 14:52 3,1 C 2,8 C -0,6 C 84 % 1008,6 hPa 0,0 l/m 0 min 0 min 42 W/m 9,7 km/h (2 Bft) 97,96 %
23.12.2021 14:54 3,1 C 2,8 C -0,6 C 84 % 1008,6 hPa 0,0 l/m 0 min 0 min 45 W/m 12,9 km/h (3 Bft) 97,14 %
23.12.2021 14:56 3,1 C 2,8 C -0,6 C 84 % 1008,5 hPa 0,0 l/m 0 min 0 min 49 W/m 9,7 km/h (2 Bft) 96,30 %
23.12.2021 14:58 3,1 C 2,8 C -0,6 C 84 % 1008,4 hPa 0,0 l/m 0 min 0 min 52 W/m 6,4 km/h (2 Bft) 97,96 %
23.12.2021 15:00 3,1 C 2,8 C -0,6 C 84 % 1008,4 hPa 0,0 l/m 0 min 0 min 55 W/m 12,9 km/h (3 Bft) 93,88 %
23.12.2021 15:02 3,1 C 2,8 C -0,6 C 85 % 1008,5 hPa 0,0 l/m 0 min 0 min 53 W/m 6,4 km/h (2 Bft) 100,00 %
23.12.2021 15:04 3,1 C 2,8 C -0,6 C 85 % 1008,5 hPa 0,0 l/m 0 min 0 min 52 W/m 12,9 km/h (3 Bft) 97,92 %
23.12.2021 15:06 3,1 C 2,8 C -0,6 C 85 % 1008,4 hPa 0,0 l/m 0 min 0 min 48 W/m 12,9 km/h (3 Bft) 96,23 %
23.12.2021 15:08 3,1 C 2,8 C 0,0 C 85 % 1008,4 hPa 0,0 l/m 0 min 0 min 48 W/m 6,4 km/h (2 Bft) 95,74 %
23.12.2021 15:10 3,1 C 2,8 C 0,0 C 85 % 1008,4 hPa 0,0 l/m 0 min 0 min 47 W/m 9,7 km/h (2 Bft) 97,83 %
23.12.2021 15:12 3,1 C 2,8 C 0,0 C 85 % 1008,4 hPa 0,0 l/m 0 min 0 min 43 W/m 12,9 km/h (3 Bft) 98,00 %
23.12.2021 15:14 3,1 C 2,8 C 0,0 C 85 % 1008,3 hPa 0,0 l/m 0 min 0 min 44 W/m 16,1 km/h (3 Bft) 97,37 %
23.12.2021 15:16 3,1 C 2,8 C 0,0 C 85 % 1008,3 hPa 0,0 l/m 0 min 0 min 43 W/m 12,9 km/h (3 Bft) 96,30 %
23.12.2021 15:18 3,1 C 2,8 C 0,0 C 85 % 1008,3 hPa 0,0 l/m 0 min 0 min 45 W/m 12,9 km/h (3 Bft) 94,00 %
23.12.2021 15:20 3,1 C 2,8 C 0,0 C 85 % 1008,3 hPa 0,0 l/m 0 min 0 min 48 W/m 9,7 km/h (2 Bft) 95,65 %
23.12.2021 15:22 3,1 C 2,8 C 0,0 C 85 % 1008,3 hPa 0,0 l/m 0 min 0 min 50 W/m 12,9 km/h (3 Bft) 95,92 %
23.12.2021 15:24 3,2 C 2,8 C 0,0 C 85 % 1008,3 hPa 0,0 l/m 0 min 0 min 49 W/m 12,9 km/h (3 Bft) 95,74 %
23.12.2021 15:26 3,2 C 2,8 C 0,0 C 85 % 1008,3 hPa 0,0 l/m 0 min 0 min 43 W/m 12,9 km/h (3 Bft) 94,29 %
23.12.2021 15:28 3,2 C 2,8 C 0,0 C 85 % 1008,4 hPa 0,0 l/m 0 min 0 min 37 W/m 6,4 km/h (2 Bft) 93,62 %
23.12.2021 15:30 3,2 C 2,8 C 0,0 C 85 % 1008,5 hPa 0,0 l/m 0 min 0 min 32 W/m 12,9 km/h (3 Bft) 95,74 %
23.12.2021 15:32 3,2 C 2,8 C 0,0 C 85 % 1008,6 hPa 0,0 l/m 0 min 0 min 28 W/m 6,4 km/h (2 Bft) 95,74 %
23.12.2021 15:34 3,2 C 2,8 C 0,0 C 85 % 1008,6 hPa 0,0 l/m 0 min 0 min 24 W/m 9,7 km/h (2 Bft) 95,74 %
23.12.2021 15:36 3,2 C 2,8 C 0,0 C 85 % 1008,7 hPa 0,0 l/m 0 min 0 min 20 W/m 6,4 km/h (2 Bft) 92,59 %
23.12.2021 15:38 3,2 C 2,8 C 0,0 C 85 % 1008,6 hPa 0,0 l/m 0 min 0 min 18 W/m 3,2 km/h (1 Bft) 93,62 %
23.12.2021 15:40 3,2 C 2,8 C 0,0 C 85 % 1008,6 hPa 0,0 l/m 0 min 0 min 18 W/m 6,4 km/h (2 Bft) 95,74 %
23.12.2021 15:42 3,2 C 2,8 C 0,0 C 85 % 1008,5 hPa 0,0 l/m 0 min 0 min 18 W/m 9,7 km/h (2 Bft) 93,62 %
23.12.2021 15:44 3,2 C 2,8 C 0,0 C 85 % 1008,6 hPa 0,0 l/m 0 min 0 min 18 W/m 6,4 km/h (2 Bft) 97,83 %
23.12.2021 15:46 3,2 C 2,8 C 0,0 C 86 % 1008,5 hPa 0,0 l/m 0 min 0 min 18 W/m 3,2 km/h (1 Bft) 96,00 %
23.12.2021 15:48 3,2 C 2,8 C 0,0 C 86 % 1008,5 hPa 0,0 l/m 0 min 0 min 17 W/m 9,7 km/h (2 Bft) 94,44 %
23.12.2021 15:50 3,2 C 2,8 C 0,0 C 86 % 1008,5 hPa 0,0 l/m 0 min 0 min 16 W/m 3,2 km/h (1 Bft) 93,62 %
23.12.2021 15:52 3,2 C 2,8 C 0,0 C 86 % 1008,5 hPa 0,0 l/m 0 min 0 min 16 W/m 9,7 km/h (2 Bft) 92,73 %
23.12.2021 15:54 3,2 C 2,8 C 0,0 C 86 % 1008,4 hPa 0,0 l/m 0 min 0 min 16 W/m 16,1 km/h (3 Bft) 96,00 %
23.12.2021 15:56 3,2 C 2,8 C 0,0 C 86 % 1008,4 hPa 0,0 l/m 0 min 0 min 15 W/m 12,9 km/h (3 Bft) 94,44 %
23.12.2021 15:58 3,2 C 2,8 C 0,0 C 86 % 1008,4 hPa 0,0 l/m 0 min 0 min 14 W/m 12,9 km/h (3 Bft) 95,65 %
23.12.2021 16:00 3,2 C 2,8 C 0,0 C 86 % 1008,4 hPa 0,0 l/m 0 min 0 min 12 W/m 16,1 km/h (3 Bft) 96,36 %
23.12.2021 16:02 3,2 C 2,8 C 0,0 C 86 % 1008,4 hPa 0,0 l/m 0 min 0 min 11 W/m 12,9 km/h (3 Bft) 97,92 %
23.12.2021 16:04 3,2 C 2,8 C 0,0 C 87 % 1008,4 hPa 0,0 l/m 0 min 0 min 9 W/m 6,4 km/h (2 Bft) 97,87 %
23.12.2021 16:06 3,2 C 2,8 C 0,0 C 87 % 1008,4 hPa 0,0 l/m 0 min 0 min 8 W/m 6,4 km/h (2 Bft) 95,74 %
23.12.2021 16:08 3,2 C 2,8 C 0,0 C 87 % 1008,4 hPa 0,0 l/m 0 min 0 min 7 W/m 6,4 km/h (2 Bft) 95,65 %
23.12.2021 16:10 3,2 C 2,8 C 0,0 C 87 % 1008,5 hPa 0,0 l/m 0 min 0 min 5 W/m 9,7 km/h (2 Bft) 97,87 %
23.12.2021 16:12 3,2 C 2,8 C 0,0 C 87 % 1008,4 hPa 0,0 l/m 0 min 0 min 5 W/m 12,9 km/h (3 Bft) 100,00 %
23.12.2021 16:14 3,2 C 2,8 C 0,0 C 87 % 1008,4 hPa 0,0 l/m 0 min 0 min 5 W/m 12,9 km/h (3 Bft) 100,00 %
23.12.2021 16:16 3,3 C 2,8 C 0,0 C 87 % 1008,5 hPa 0,0 l/m 0 min 0 min 4 W/m 9,7 km/h (2 Bft) 100,00 %
23.12.2021 16:18 3,3 C 2,8 C 0,0 C 87 % 1008,5 hPa 0,0 l/m 0 min 0 min 4 W/m 9,7 km/h (2 Bft) 100,00 %
23.12.2021 16:20 3,3 C 2,8 C 0,0 C 87 % 1008,4 hPa 0,0 l/m 0 min 0 min 5 W/m 3,2 km/h (1 Bft) 100,00 %
23.12.2021 16:22 3,3 C 2,8 C 0,0 C 87 % 1008,3 hPa 0,0 l/m 0 min 0 min 2 W/m 6,4 km/h (2 Bft) 100,00 %
23.12.2021 16:24 3,3 C 2,8 C 0,0 C 87 % 1008,4 hPa 0,0 l/m 0 min 0 min 0 W/m 6,4 km/h (2 Bft) 100,00 %
23.12.2021 16:26 3,3 C 2,8 C 0,0 C 87 % 1008,4 hPa 0,0 l/m 0 min 0 min 0 W/m 3,2 km/h (1 Bft) 100,00 %
23.12.2021 16:28 3,3 C 2,8 C 0,0 C 88 % 1008,3 hPa 0,0 l/m 0 min 0 min 0 W/m 6,4 km/h (2 Bft) 98,11 %
23.12.2021 16:30 3,3 C 2,8 C 0,0 C 88 % 1008,2 hPa 0,0 l/m 0 min 0 min 0 W/m 6,4 km/h (2 Bft) 97,87 %
23.12.2021 16:32 3,3 C 2,8 C 0,0 C 88 % 1008,3 hPa 0,0 l/m 0 min 0 min 0 W/m 3,2 km/h (1 Bft) 100,00 %
23.12.2021 16:34 3,4 C 2,8 C 0,0 C 88 % 1008,3 hPa 0,0 l/m 0 min 0 min 0 W/m 9,7 km/h (2 Bft) 100,00 %
23.12.2021 16:36 3,4 C 2,8 C 0,0 C 88 % 1008,4 hPa 0,0 l/m 0 min 0 min 0 W/m 3,2 km/h (1 Bft) 98,21 %
23.12.2021 16:38 3,4 C 2,8 C 0,0 C 88 % 1008,4 hPa 0,0 l/m 0 min 0 min 0 W/m 12,9 km/h (3 Bft) 100,00 %
23.12.2021 16:40 3,4 C 2,8 C 0,0 C 88 % 1008,4 hPa 0,0 l/m 0 min 0 min 0 W/m 12,9 km/h (3 Bft) 100,00 %
23.12.2021 16:42 3,4 C 2,8 C 0,0 C 88 % 1008,4 hPa 0,0 l/m 0 min 0 min 0 W/m 6,4 km/h (2 Bft) 100,00 %
23.12.2021 16:44 3,5 C 3,3 C 0,0 C 88 % 1008,3 hPa 0,0 l/m 0 min 0 min 0 W/m 3,2 km/h (1 Bft) 100,00 %
23.12.2021 16:46 3,5 C 3,3 C 0,0 C 88 % 1008,4 hPa 0,0 l/m 0 min 0 min 0 W/m 9,7 km/h (2 Bft) 100,00 %
23.12.2021 16:48 3,6 C 3,3 C 0,0 C 89 % 1008,3 hPa 0,0 l/m 0 min 0 min 0 W/m 3,2 km/h (1 Bft) 100,00 %
23.12.2021 16:50 3,6 C 3,3 C 0,0 C 89 % 1008,3 hPa 0,0 l/m 0 min 0 min 0 W/m 9,7 km/h (2 Bft) 100,00 %
23.12.2021 16:52 3,6 C 3,3 C 0,6 C 89 % 1008,3 hPa 0,0 l/m 0 min 0 min 0 W/m 12,9 km/h (3 Bft) 97,37 %
23.12.2021 16:54 3,7 C 3,3 C 0,6 C 89 % 1008,3 hPa 0,0 l/m 0 min 0 min 0 W/m 9,7 km/h (2 Bft) 100,00 %
23.12.2021 16:56 3,7 C 3,3 C 0,6 C 89 % 1008,3 hPa 0,0 l/m 0 min 0 min 0 W/m 9,7 km/h (2 Bft) 100,00 %
23.12.2021 16:58 3,7 C 3,3 C 0,6 C 89 % 1008,3 hPa 0,0 l/m 0 min 0 min 0 W/m 6,4 km/h (2 Bft) 100,00 %
23.12.2021 17:00 3,8 C 3,3 C 0,6 C 89 % 1008,3 hPa 0,0 l/m 0 min 0 min 0 W/m 6,4 km/h (2 Bft) 100,00 %
23.12.2021 17:02 4,0 C 3,9 C 0,6 C 90 % 1008,3 hPa 0,0 l/m 0 min 0 min 0 W/m 12,9 km/h (3 Bft) 100,00 %
23.12.2021 17:04 4,1 C 3,9 C 0,6 C 90 % 1008,2 hPa 0,0 l/m 0 min 0 min 0 W/m 19,3 km/h (3 Bft) 100,00 %
23.12.2021 17:06 4,2 C 3,9 C 0,6 C 90 % 1008,3 hPa 0,0 l/m 0 min 0 min 0 W/m 9,7 km/h (2 Bft) 97,87 %
23.12.2021 17:08 4,3 C 3,9 C 1,1 C 91 % 1008,2 hPa 0,0 l/m 0 min 0 min 0 W/m 12,9 km/h (3 Bft) 95,65 %
23.12.2021 17:10 4,5 C 4,4 C 1,1 C 91 % 1008,3 hPa 0,0 l/m 0 min 0 min 0 W/m 9,7 km/h (2 Bft) 97,87 %
23.12.2021 17:12 4,7 C 4,4 C 1,1 C 92 % 1008,2 hPa 0,0 l/m 0 min 0 min 0 W/m 19,3 km/h (3 Bft) 100,00 %
23.12.2021 17:14 4,8 C 4,4 C 1,1 C 92 % 1008,2 hPa 0,0 l/m 0 min 0 min 0 W/m 16,1 km/h (3 Bft) 100,00 %
23.12.2021 17:16 4,9 C 4,4 C 1,1 C 92 % 1008,2 hPa 0,0 l/m 0 min 0 min 0 W/m 12,9 km/h (3 Bft) 98,18 %
23.12.2021 17:18 5,0 C 4,4 C 1,1 C 92 % 1008,2 hPa 0,0 l/m 0 min 0 min 0 W/m 16,1 km/h (3 Bft) 100,00 %
23.12.2021 17:20 5,1 C 4,4 C 1,7 C 92 % 1008,2 hPa 0,0 l/m 0 min 0 min 0 W/m 22,5 km/h (4 Bft) 100,00 %
23.12.2021 17:22 5,1 C 4,4 C 1,7 C 92 % 1008,2 hPa 0,0 l/m 0 min 0 min 0 W/m 12,9 km/h (3 Bft) 100,00 %
23.12.2021 17:24 5,1 C 4,4 C 1,7 C 92 % 1008,2 hPa 0,0 l/m 0 min 0 min 0 W/m 9,7 km/h (2 Bft) 100,00 %
23.12.2021 17:26 5,1 C 4,4 C 1,7 C 92 % 1008,3 hPa 0,0 l/m 0 min 0 min 0 W/m 19,3 km/h (3 Bft) 97,87 %
23.12.2021 17:28 5,2 C 4,4 C 1,7 C 92 % 1008,3 hPa 0,0 l/m 0 min 0 min 0 W/m 9,7 km/h (2 Bft) 97,37 %
23.12.2021 17:30 5,2 C 4,4 C 1,7 C 92 % 1008,3 hPa 0,0 l/m 0 min 0 min 0 W/m 6,4 km/h (2 Bft) 97,83 %
23.12.2021 17:32 5,2 C 4,4 C 1,7 C 92 % 1008,3 hPa 0,0 l/m 0 min 0 min 0 W/m 12,9 km/h (3 Bft) 100,00 %
23.12.2021 17:34 5,2 C 4,4 C 1,7 C 92 % 1008,4 hPa 0,0 l/m 0 min 0 min 0 W/m 6,4 km/h (2 Bft) 100,00 %
23.12.2021 17:36 5,2 C 4,4 C 1,7 C 92 % 1008,5 hPa 0,0 l/m 0 min 0 min 0 W/m 9,7 km/h (2 Bft) 97,87 %
23.12.2021 17:38 5,2 C 4,4 C 1,7 C 92 % 1008,5 hPa 0,0 l/m 0 min 0 min 0 W/m 16,1 km/h (3 Bft) 100,00 %
23.12.2021 17:40 5,2 C 4,4 C 1,7 C 92 % 1008,5 hPa 0,0 l/m 0 min 0 min 0 W/m 16,1 km/h (3 Bft) 97,87 %
23.12.2021 17:42 5,2 C 4,4 C 1,7 C 92 % 1008,5 hPa 0,0 l/m 0 min 0 min 0 W/m 12,9 km/h (3 Bft) 93,62 %
23.12.2021 17:44 5,2 C 4,4 C 1,7 C 92 % 1008,6 hPa 0,0 l/m 0 min 0 min 0 W/m 6,4 km/h (2 Bft) 95,65 %
23.12.2021 17:46 5,2 C 4,4 C 1,7 C 93 % 1008,5 hPa 0,0 l/m 0 min 0 min 0 W/m 16,1 km/h (3 Bft) 94,64 %
23.12.2021 17:48 5,2 C 4,4 C 1,7 C 93 % 1008,5 hPa 0,0 l/m 0 min 0 min 0 W/m 12,9 km/h (3 Bft) 95,74 %
23.12.2021 17:50 5,2 C 4,4 C 1,7 C 93 % 1008,5 hPa 0,0 l/m 0 min 0 min 0 W/m 16,1 km/h (3 Bft) 95,74 %
23.12.2021 17:52 5,2 C 4,4 C 1,7 C 93 % 1008,4 hPa 0,0 l/m 0 min 0 min 0 W/m 16,1 km/h (3 Bft) 95,65 %
23.12.2021 17:54 5,2 C 4,4 C 1,7 C 93 % 1008,4 hPa 0,0 l/m 0 min 0 min 0 W/m 25,7 km/h (4 Bft) 93,62 %
23.12.2021 17:56 5,2 C 4,4 C 1,7 C 93 % 1008,4 hPa 0,0 l/m 0 min 0 min 0 W/m 6,4 km/h (2 Bft) 91,49 %
23.12.2021 17:58 5,2 C 4,4 C 1,7 C 93 % 1008,4 hPa 0,0 l/m 0 min 0 min 0 W/m 12,9 km/h (3 Bft) 95,74 %
23.12.2021 18:00 5,1 C 4,4 C 1,7 C 93 % 1008,4 hPa 0,0 l/m 0 min 0 min 0 W/m 12,9 km/h (3 Bft) 93,62 %
23.12.2021 18:02 5,1 C 4,4 C 1,7 C 93 % 1008,4 hPa 0,0 l/m 0 min 0 min 0 W/m 12,9 km/h (3 Bft) 93,75 %
23.12.2021 18:04 5,1 C 4,4 C 1,7 C 93 % 1008,4 hPa 0,0 l/m 0 min 0 min 0 W/m 12,9 km/h (3 Bft) 93,75 %
23.12.2021 18:08 5,1 C 4,4 C 1,7 C 93 % 1008,3 hPa 0,0 l/m 0 min 0 min 0 W/m 22,5 km/h (4 Bft) 93,62 %
23.12.2021 18:10 5,1 C 4,4 C 1,7 C 93 % 1008,4 hPa 0,0 l/m 0 min 0 min 0 W/m 12,9 km/h (3 Bft) 93,62 %
23.12.2021 18:12 5,1 C 4,4 C 1,7 C 93 % 1008,4 hPa 0,0 l/m 0 min 0 min 0 W/m 12,9 km/h (3 Bft) 91,49 %
23.12.2021 18:14 5,1 C 4,4 C 1,7 C 93 % 1008,3 hPa 0,0 l/m 0 min 0 min 0 W/m 12,9 km/h (3 Bft) 95,65 %
23.12.2021 18:16 5,1 C 4,4 C 1,7 C 93 % 1008,2 hPa 0,0 l/m 0 min 0 min 0 W/m 12,9 km/h (3 Bft) 94,44 %
23.12.2021 18:18 5,1 C 4,4 C 1,7 C 93 % 1008,3 hPa 0,0 l/m 0 min 0 min 0 W/m 9,7 km/h (2 Bft) 95,65 %
23.12.2021 18:20 5,1 C 4,4 C 1,7 C 93 % 1008,2 hPa 0,0 l/m 0 min 0 min 0 W/m 12,9 km/h (3 Bft) 95,74 %
23.12.2021 18:22 5,1 C 4,4 C 1,7 C 93 % 1008,2 hPa 0,0 l/m 0 min 0 min 0 W/m 9,7 km/h (2 Bft) 95,74 %
23.12.2021 18:24 5,1 C 4,4 C 1,7 C 93 % 1008,1 hPa 0,0 l/m 0 min 0 min 0 W/m 16,1 km/h (3 Bft) 95,74 %
23.12.2021 18:26 5,1 C 4,4 C 1,7 C 93 % 1008,1 hPa 0,0 l/m 0 min 0 min 0 W/m 19,3 km/h (3 Bft) 95,74 %
23.12.2021 18:28 5,1 C 4,4 C 1,7 C 93 % 1008,1 hPa 0,0 l/m 0 min 0 min 0 W/m 6,4 km/h (2 Bft) 96,30 %
23.12.2021 18:30 5,1 C 4,4 C 1,7 C 94 % 1008,1 hPa 0,0 l/m 0 min 0 min 0 W/m 12,9 km/h (3 Bft) 97,87 %
23.12.2021 18:32 5,1 C 4,4 C 1,7 C 94 % 1008,1 hPa 0,0 l/m 0 min 0 min 0 W/m 6,4 km/h (2 Bft) 96,00 %
23.12.2021 18:34 5,1 C 4,4 C 1,7 C 93 % 1008,2 hPa 0,0 l/m 0 min 0 min 0 W/m 12,9 km/h (3 Bft) 97,22 %
23.12.2021 18:36 5,1 C 4,4 C 1,7 C 93 % 1008,2 hPa 0,0 l/m 0 min 0 min 0 W/m 6,4 km/h (2 Bft) 97,87 %
23.12.2021 18:38 5,1 C 4,4 C 1,7 C 93 % 1008,1 hPa 0,0 l/m 0 min 0 min 0 W/m 9,7 km/h (2 Bft) 97,87 %
23.12.2021 18:40 5,1 C 4,4 C 1,7 C 93 % 1008,3 hPa 0,0 l/m 0 min 0 min 0 W/m 9,7 km/h (2 Bft) 97,83 %
23.12.2021 18:42 5,1 C 4,4 C 1,7 C 93 % 1008,2 hPa 0,0 l/m 0 min 0 min 0 W/m 6,4 km/h (2 Bft) 95,65 %
23.12.2021 18:44 5,0 C 4,4 C 1,7 C 94 % 1008,3 hPa 0,0 l/m 0 min 0 min 0 W/m 9,7 km/h (2 Bft) 98,18 %
23.12.2021 18:46 5,0 C 4,4 C 1,7 C 94 % 1008,3 hPa 0,0 l/m 0 min 0 min 0 W/m 6,4 km/h (2 Bft) 100,00 %
23.12.2021 18:48 5,1 C 4,4 C 1,7 C 94 % 1008,2 hPa 0,0 l/m 0 min 0 min 0 W/m 12,9 km/h (3 Bft) 100,00 %
23.12.2021 18:50 5,1 C 4,4 C 1,7 C 94 % 1008,2 hPa 0,0 l/m 0 min 0 min 0 W/m 6,4 km/h (2 Bft) 100,00 %
23.12.2021 18:52 5,1 C 4,4 C 1,7 C 94 % 1008,1 hPa 0,0 l/m 0 min 0 min 0 W/m 12,9 km/h (3 Bft) 100,00 %
23.12.2021 18:54 5,1 C 4,4 C 1,7 C 94 % 1008,2 hPa 0,0 l/m 0 min 0 min 0 W/m 16,1 km/h (3 Bft) 100,00 %
23.12.2021 18:56 5,1 C 4,4 C 1,7 C 94 % 1008,1 hPa 0,0 l/m 0 min 0 min 0 W/m 9,7 km/h (2 Bft) 100,00 %
23.12.2021 18:58 5,1 C 4,4 C 1,7 C 94 % 1008,1 hPa 0,0 l/m 0 min 0 min 0 W/m 9,7 km/h (2 Bft) 100,00 %
23.12.2021 19:00 5,1 C 4,4 C 1,7 C 94 % 1008,0 hPa 0,0 l/m 0 min 0 min 0 W/m 12,9 km/h (3 Bft) 100,00 %
23.12.2021 19:02 5,1 C 4,4 C 1,7 C 94 % 1007,9 hPa 0,0 l/m 0 min 0 min 0 W/m 6,4 km/h (2 Bft) 100,00 %
23.12.2021 19:04 5,1 C 4,4 C 1,7 C 94 % 1008,0 hPa 0,0 l/m 0 min 0 min 0 W/m 16,1 km/h (3 Bft) 100,00 %
23.12.2021 19:06 5,1 C 4,4 C 1,7 C 94 % 1008,0 hPa 0,0 l/m 0 min 0 min 0 W/m 16,1 km/h (3 Bft) 100,00 %
23.12.2021 19:08 5,1 C 4,4 C 1,7 C 94 % 1008,0 hPa 0,0 l/m 0 min 0 min 0 W/m 6,4 km/h (2 Bft) 100,00 %
23.12.2021 19:10 5,1 C 4,4 C 1,7 C 94 % 1008,1 hPa 0,0 l/m 0 min 0 min 0 W/m 6,4 km/h (2 Bft) 100,00 %
23.12.2021 19:12 5,1 C 4,4 C 1,7 C 94 % 1008,0 hPa 0,0 l/m 0 min 0 min 0 W/m 6,4 km/h (2 Bft) 100,00 %
23.12.2021 19:14 5,1 C 4,4 C 1,7 C 94 % 1008,0 hPa 0,0 l/m 0 min 0 min 0 W/m 12,9 km/h (3 Bft) 100,00 %
23.12.2021 19:16 5,1 C 4,4 C 1,7 C 94 % 1008,0 hPa 0,0 l/m 0 min 0 min 0 W/m 12,9 km/h (3 Bft) 100,00 %
23.12.2021 19:18 5,1 C 4,4 C 1,7 C 94 % 1008,1 hPa 0,0 l/m 0 min 0 min 0 W/m 12,9 km/h (3 Bft) 100,00 %
23.12.2021 19:20 5,1 C 4,4 C 1,7 C 94 % 1008,0 hPa 0,0 l/m 0 min 0 min 0 W/m 16,1 km/h (3 Bft) 100,00 %
23.12.2021 19:22 5,2 C 4,4 C 1,7 C 94 % 1008,0 hPa 0,0 l/m 0 min 0 min 0 W/m 12,9 km/h (3 Bft) 97,87 %
23.12.2021 19:24 5,2 C 4,4 C 1,7 C 94 % 1007,9 hPa 0,0 l/m 0 min 0 min 0 W/m 12,9 km/h (3 Bft) 100,00 %
23.12.2021 19:26 5,2 C 4,4 C 1,7 C 94 % 1007,9 hPa 0,0 l/m 0 min 0 min 0 W/m 9,7 km/h (2 Bft) 100,00 %
23.12.2021 19:28 5,2 C 4,4 C 1,7 C 94 % 1008,0 hPa 0,0 l/m 0 min 0 min 0 W/m 16,1 km/h (3 Bft) 100,00 %
23.12.2021 19:30 5,2 C 4,4 C 1,7 C 94 % 1008,0 hPa 0,0 l/m 0 min 0 min 0 W/m 16,1 km/h (3 Bft) 97,87 %
23.12.2021 19:32 5,2 C 4,4 C 1,7 C 94 % 1007,9 hPa 0,0 l/m 0 min 0 min 0 W/m 12,9 km/h (3 Bft) 97,37 %
23.12.2021 19:34 5,2 C 4,4 C 1,7 C 94 % 1007,9 hPa 0,0 l/m 0 min 0 min 0 W/m 9,7 km/h (2 Bft) 100,00 %
23.12.2021 19:36 5,2 C 4,4 C 1,7 C 94 % 1007,8 hPa 0,0 l/m 0 min 0 min 0 W/m 16,1 km/h (3 Bft) 100,00 %
23.12.2021 19:38 5,2 C 4,4 C 1,7 C 94 % 1007,7 hPa 0,0 l/m 0 min 0 min 0 W/m 16,1 km/h (3 Bft) 100,00 %
23.12.2021 19:40 5,3 C 4,4 C 1,7 C 94 % 1007,7 hPa 0,0 l/m 0 min 0 min 0 W/m 12,9 km/h (3 Bft) 97,87 %
23.12.2021 19:42 5,3 C 4,4 C 1,7 C 94 % 1007,7 hPa 0,0 l/m 0 min 0 min 0 W/m 16,1 km/h (3 Bft) 97,87 %
23.12.2021 19:44 5,3 C 4,4 C 1,7 C 94 % 1007,6 hPa 0,0 l/m 0 min 0 min 0 W/m 12,9 km/h (3 Bft) 97,87 %
23.12.2021 19:46 5,3 C 4,4 C 1,7 C 94 % 1007,5 hPa 0,0 l/m 0 min 0 min 0 W/m 12,9 km/h (3 Bft) 97,87 %
23.12.2021 19:48 5,3 C 4,4 C 1,7 C 94 % 1007,5 hPa 0,0 l/m 0 min 0 min 0 W/m 6,4 km/h (2 Bft) 97,87 %
23.12.2021 19:50 5,3 C 4,4 C 1,7 C 95 % 1007,6 hPa 0,0 l/m 0 min 0 min 0 W/m 12,9 km/h (3 Bft) 97,83 %
23.12.2021 19:52 5,3 C 4,4 C 1,7 C 95 % 1007,6 hPa 0,0 l/m 0 min 0 min 0 W/m 12,9 km/h (3 Bft) 95,74 %
23.12.2021 19:54 5,3 C 4,4 C 1,7 C 95 % 1007,5 hPa 0,0 l/m 0 min 0 min 0 W/m 19,3 km/h (3 Bft) 97,87 %
23.12.2021 19:56 5,3 C 4,4 C 1,7 C 95 % 1007,5 hPa 0,0 l/m 0 min 0 min 0 W/m 16,1 km/h (3 Bft) 97,87 %
23.12.2021 19:58 5,3 C 4,4 C 1,7 C 95 % 1007,5 hPa 0,0 l/m 0 min 0 min 0 W/m 12,9 km/h (3 Bft) 97,87 %
23.12.2021 20:00 5,4 C 4,4 C 1,7 C 95 % 1007,5 hPa 0,0 l/m 0 min 0 min 0 W/m 16,1 km/h (3 Bft) 93,62 %
23.12.2021 20:02 5,4 C 4,4 C 1,7 C 95 % 1007,6 hPa 0,0 l/m 0 min 0 min 0 W/m 12,9 km/h (3 Bft) 97,83 %
23.12.2021 20:04 5,4 C 4,4 C 2,2 C 95 % 1007,6 hPa 0,0 l/m 0 min 0 min 0 W/m 25,7 km/h (4 Bft) 97,87 %
23.12.2021 20:06 5,4 C 4,4 C 2,2 C 95 % 1007,5 hPa 0,0 l/m 0 min 0 min 0 W/m 25,7 km/h (4 Bft) 94,55 %
23.12.2021 20:08 5,4 C 4,4 C 2,2 C 96 % 1007,4 hPa 0,0 l/m 0 min 0 min 0 W/m 19,3 km/h (3 Bft) 97,87 %
23.12.2021 20:10 5,4 C 4,4 C 2,2 C 96 % 1007,4 hPa 0,0 l/m 0 min 0 min 0 W/m 19,3 km/h (3 Bft) 97,87 %
23.12.2021 20:12 5,4 C 4,4 C 2,2 C 96 % 1007,2 hPa 0,0 l/m 0 min 0 min 0 W/m 16,1 km/h (3 Bft) 97,96 %
23.12.2021 20:14 5,5 C 5,0 C 2,2 C 96 % 1007,2 hPa 0,0 l/m 0 min 2 min 0 W/m 22,5 km/h (4 Bft) 95,74 %
23.12.2021 20:16 5,6 C 5,0 C 2,2 C 96 % 1007,2 hPa 0,0 l/m 0 min 2 min 0 W/m 22,5 km/h (4 Bft) 97,87 %
23.12.2021 20:18 5,6 C 5,0 C 2,2 C 96 % 1007,1 hPa 0,0 l/m 0 min 0 min 0 W/m 19,3 km/h (3 Bft) 100,00 %
23.12.2021 20:20 5,6 C 5,0 C 2,2 C 96 % 1007,1 hPa 0,0 l/m 0 min 0 min 0 W/m 16,1 km/h (3 Bft) 100,00 %
23.12.2021 20:22 5,6 C 5,0 C 2,2 C 96 % 1007,0 hPa 0,0 l/m 0 min 0 min 0 W/m 22,5 km/h (4 Bft) 97,87 %
23.12.2021 20:24 5,6 C 5,0 C 2,2 C 96 % 1007,0 hPa 0,0 l/m 0 min 0 min 0 W/m 22,5 km/h (4 Bft) 100,00 %
23.12.2021 20:26 5,6 C 5,0 C 2,2 C 96 % 1007,0 hPa 0,0 l/m 0 min 2 min 0 W/m 22,5 km/h (4 Bft) 97,87 %
23.12.2021 20:28 5,6 C 5,0 C 2,2 C 96 % 1006,9 hPa 0,0 l/m 0 min 0 min 0 W/m 12,9 km/h (3 Bft) 97,87 %
23.12.2021 20:30 5,6 C 5,0 C 2,2 C 96 % 1006,9 hPa 0,0 l/m 0 min 0 min 0 W/m 22,5 km/h (4 Bft) 95,74 %
23.12.2021 20:32 5,6 C 5,0 C 2,2 C 97 % 1006,8 hPa 0,0 l/m 0 min 0 min 0 W/m 19,3 km/h (3 Bft) 95,74 %
23.12.2021 20:34 5,7 C 5,0 C 2,2 C 97 % 1006,9 hPa 0,2 l/m 0 min 0 min 0 W/m 22,5 km/h (4 Bft) 95,74 %
23.12.2021 20:36 5,7 C 5,0 C 2,2 C 97 % 1006,8 hPa 0,0 l/m 0 min 0 min 0 W/m 19,3 km/h (3 Bft) 96,15 %
23.12.2021 20:38 5,7 C 5,0 C 2,2 C 97 % 1006,8 hPa 0,0 l/m 0 min 0 min 0 W/m 22,5 km/h (4 Bft) 95,74 %
23.12.2021 20:40 5,7 C 5,0 C 2,2 C 97 % 1006,8 hPa 0,0 l/m 0 min 0 min 0 W/m 25,7 km/h (4 Bft) 93,62 %
23.12.2021 20:42 5,7 C 5,0 C 2,2 C 97 % 1006,7 hPa 0,0 l/m 0 min 0 min 0 W/m 12,9 km/h (3 Bft) 94,00 %
23.12.2021 20:44 5,7 C 5,0 C 2,2 C 97 % 1006,8 hPa 0,0 l/m 0 min 0 min 0 W/m 25,7 km/h (4 Bft) 94,74 %
23.12.2021 20:46 5,8 C 5,0 C 2,8 C 97 % 1006,7 hPa 0,0 l/m 0 min 0 min 0 W/m 22,5 km/h (4 Bft) 95,74 %
23.12.2021 20:48 5,8 C 5,0 C 2,8 C 97 % 1006,7 hPa 0,0 l/m 0 min 0 min 0 W/m 19,3 km/h (3 Bft) 95,65 %
23.12.2021 20:50 5,8 C 5,0 C 2,8 C 97 % 1006,7 hPa 0,0 l/m 0 min 0 min 0 W/m 22,5 km/h (4 Bft) 95,74 %
23.12.2021 20:52 5,8 C 5,0 C 2,8 C 97 % 1006,7 hPa 0,0 l/m 0 min 0 min 0 W/m 16,1 km/h (3 Bft) 93,62 %
23.12.2021 20:54 5,8 C 5,0 C 2,8 C 97 % 1006,7 hPa 0,0 l/m 0 min 0 min 0 W/m 22,5 km/h (4 Bft) 95,74 %
23.12.2021 20:56 5,9 C 5,0 C 2,8 C 97 % 1006,6 hPa 0,0 l/m 0 min 0 min 0 W/m 12,9 km/h (3 Bft) 95,74 %
23.12.2021 20:58 5,9 C 5,0 C 2,8 C 97 % 1006,6 hPa 0,0 l/m 0 min 0 min 0 W/m 12,9 km/h (3 Bft) 95,74 %
23.12.2021 21:00 5,9 C 5,0 C 2,8 C 97 % 1006,6 hPa 0,0 l/m 0 min 0 min 0 W/m 12,9 km/h (3 Bft) 95,65 %
23.12.2021 21:02 5,9 C 5,0 C 2,8 C 97 % 1006,7 hPa 0,2 l/m 0 min 0 min 0 W/m 9,7 km/h (2 Bft) 96,30 %
23.12.2021 21:04 5,9 C 5,0 C 2,8 C 97 % 1006,7 hPa 0,0 l/m 0 min 0 min 0 W/m 16,1 km/h (3 Bft) 95,35 %
23.12.2021 21:06 5,9 C 5,0 C 2,8 C 97 % 1006,6 hPa 0,0 l/m 0 min 0 min 0 W/m 16,1 km/h (3 Bft) 94,44 %
23.12.2021 21:08 5,9 C 5,0 C 2,8 C 97 % 1006,6 hPa 0,0 l/m 0 min 2 min 0 W/m 16,1 km/h (3 Bft) 93,48 %
23.12.2021 21:10 5,9 C 5,0 C 2,8 C 97 % 1006,6 hPa 0,0 l/m 0 min 0 min 0 W/m 16,1 km/h (3 Bft) 95,74 %
23.12.2021 21:12 5,9 C 5,0 C 2,8 C 97 % 1006,6 hPa 0,0 l/m 0 min 0 min 0 W/m 16,1 km/h (3 Bft) 95,74 %
23.12.2021 21:14 5,9 C 5,0 C 2,8 C 97 % 1006,6 hPa 0,0 l/m 0 min 0 min 0 W/m 9,7 km/h (2 Bft) 96,00 %
23.12.2021 21:16 5,9 C 5,0 C 2,8 C 97 % 1006,6 hPa 0,0 l/m 0 min 0 min 0 W/m 9,7 km/h (2 Bft) 97,14 %
23.12.2021 21:18 5,9 C 5,0 C 2,8 C 97 % 1006,6 hPa 0,0 l/m 0 min 0 min 0 W/m 22,5 km/h (4 Bft) 97,92 %
23.12.2021 21:20 6,0 C 5,0 C 2,8 C 97 % 1006,5 hPa 0,0 l/m 0 min 0 min 0 W/m 19,3 km/h (3 Bft) 100,00 %
23.12.2021 21:22 6,0 C 5,0 C 2,8 C 98 % 1006,5 hPa 0,2 l/m 0 min 0 min 0 W/m 16,1 km/h (3 Bft) 97,83 %
23.12.2021 21:24 6,0 C 5,0 C 2,8 C 98 % 1006,5 hPa 0,0 l/m 0 min 0 min 0 W/m 16,1 km/h (3 Bft) 97,87 %
23.12.2021 21:26 6,1 C 5,0 C 2,8 C 98 % 1006,6 hPa 0,0 l/m 0 min 0 min 0 W/m 12,9 km/h (3 Bft) 97,87 %
23.12.2021 21:28 6,1 C 5,0 C 2,8 C 98 % 1006,5 hPa 0,2 l/m 0 min 0 min 0 W/m 12,9 km/h (3 Bft) 100,00 %
23.12.2021 21:30 6,1 C 5,6 C 2,8 C 98 % 1006,5 hPa 0,0 l/m 0 min 0 min 0 W/m 22,5 km/h (4 Bft) 100,00 %
23.12.2021 21:32 6,1 C 5,6 C 2,8 C 98 % 1006,5 hPa 0,0 l/m 0 min 0 min 0 W/m 19,3 km/h (3 Bft) 97,87 %
23.12.2021 21:34 6,1 C 5,6 C 2,8 C 98 % 1006,6 hPa 0,0 l/m 0 min 0 min 0 W/m 12,9 km/h (3 Bft) 100,00 %
23.12.2021 21:36 6,2 C 5,6 C 2,8 C 98 % 1006,5 hPa 0,0 l/m 0 min 0 min 0 W/m 9,7 km/h (2 Bft) 98,21 %
23.12.2021 21:38 6,2 C 5,6 C 3,3 C 98 % 1006,5 hPa 0,0 l/m 0 min 0 min 0 W/m 16,1 km/h (3 Bft) 100,00 %
23.12.2021 21:40 6,2 C 5,6 C 3,3 C 98 % 1006,5 hPa 0,0 l/m 0 min 0 min 0 W/m 9,7 km/h (2 Bft) 100,00 %
23.12.2021 21:42 6,2 C 5,6 C 3,3 C 98 % 1006,5 hPa 0,0 l/m 0 min 0 min 0 W/m 12,9 km/h (3 Bft) 97,87 %
23.12.2021 21:44 6,2 C 5,6 C 3,3 C 98 % 1006,5 hPa 0,0 l/m 0 min 0 min 0 W/m 6,4 km/h (2 Bft) 97,87 %
23.12.2021 21:46 6,3 C 5,6 C 3,3 C 98 % 1006,5 hPa 0,0 l/m 0 min 0 min 0 W/m 16,1 km/h (3 Bft) 96,15 %
23.12.2021 21:48 6,3 C 5,6 C 3,3 C 98 % 1006,6 hPa 0,0 l/m 0 min 0 min 0 W/m 22,5 km/h (4 Bft) 97,87 %
23.12.2021 21:50 6,3 C 5,6 C 3,3 C 98 % 1006,5 hPa 0,0 l/m 0 min 0 min 0 W/m 22,5 km/h (4 Bft) 97,87 %
23.12.2021 21:52 6,3 C 5,6 C 3,3 C 98 % 1006,5 hPa 0,0 l/m 0 min 2 min 0 W/m 12,9 km/h (3 Bft) 98,00 %
23.12.2021 21:54 6,4 C 5,6 C 3,3 C 98 % 1006,5 hPa 0,0 l/m 0 min 2 min 0 W/m 19,3 km/h (3 Bft) 97,37 %
23.12.2021 21:56 6,4 C 5,6 C 3,3 C 98 % 1006,5 hPa 0,2 l/m 0 min 2 min 0 W/m 12,9 km/h (3 Bft) 98,08 %
23.12.2021 21:58 6,4 C 5,6 C 3,3 C 98 % 1006,5 hPa 0,0 l/m 0 min 2 min 0 W/m 22,5 km/h (4 Bft) 96,00 %
23.12.2021 22:00 6,4 C 5,6 C 3,3 C 98 % 1006,5 hPa 0,2 l/m 0 min 2 min 0 W/m 12,9 km/h (3 Bft) 97,87 %
23.12.2021 22:02 6,5 C 5,6 C 3,3 C 98 % 1006,4 hPa 0,0 l/m 0 min 2 min 0 W/m 6,4 km/h (2 Bft) 94,59 %
23.12.2021 22:04 6,5 C 5,6 C 3,3 C 98 % 1006,4 hPa 0,0 l/m 0 min 2 min 0 W/m 16,1 km/h (3 Bft) 97,87 %
23.12.2021 22:06 6,5 C 5,6 C 3,3 C 98 % 1006,4 hPa 0,2 l/m 0 min 2 min 0 W/m 16,1 km/h (3 Bft) 97,87 %
23.12.2021 22:08 6,5 C 5,6 C 3,3 C 98 % 1006,3 hPa 0,0 l/m 0 min 2 min 0 W/m 12,9 km/h (3 Bft) 95,92 %
23.12.2021 22:10 6,5 C 5,6 C 3,3 C 98 % 1006,3 hPa 0,0 l/m 0 min 0 min 0 W/m 16,1 km/h (3 Bft) 97,87 %
23.12.2021 22:12 6,5 C 5,6 C 3,3 C 98 % 1006,3 hPa 0,0 l/m 0 min 0 min 0 W/m 19,3 km/h (3 Bft) 97,92 %
23.12.2021 22:14 6,6 C 5,6 C 3,3 C 98 % 1006,2 hPa 0,0 l/m 0 min 0 min 0 W/m 19,3 km/h (3 Bft) 97,87 %
23.12.2021 22:16 6,6 C 5,6 C 3,3 C 98 % 1006,2 hPa 0,0 l/m 0 min 0 min 0 W/m 22,5 km/h (4 Bft) 100,00 %
23.12.2021 22:18 6,6 C 5,6 C 3,3 C 98 % 1006,1 hPa 0,0 l/m 0 min 0 min 0 W/m 16,1 km/h (3 Bft) 97,87 %
23.12.2021 22:20 6,6 C 5,6 C 3,3 C 98 % 1006,3 hPa 0,0 l/m 0 min 0 min 0 W/m 22,5 km/h (4 Bft) 100,00 %
23.12.2021 22:22 6,6 C 5,6 C 3,3 C 98 % 1006,2 hPa 0,0 l/m 0 min 0 min 0 W/m 16,1 km/h (3 Bft) 100,00 %
23.12.2021 22:24 6,6 C 5,6 C 3,3 C 98 % 1006,2 hPa 0,0 l/m 0 min 0 min 0 W/m 19,3 km/h (3 Bft) 100,00 %
23.12.2021 22:26 6,6 C 5,6 C 3,3 C 98 % 1006,2 hPa 0,0 l/m 0 min 0 min 0 W/m 16,1 km/h (3 Bft) 100,00 %
23.12.2021 22:28 6,6 C 5,6 C 3,3 C 98 % 1006,2 hPa 0,2 l/m 0 min 0 min 0 W/m 12,9 km/h (3 Bft) 98,00 %
23.12.2021 22:30 6,6 C 5,6 C 3,9 C 98 % 1006,2 hPa 0,0 l/m 0 min 2 min 0 W/m 22,5 km/h (4 Bft) 100,00 %
23.12.2021 22:32 6,7 C 5,6 C 3,9 C 98 % 1006,2 hPa 0,0 l/m 0 min 2 min 0 W/m 19,3 km/h (3 Bft) 100,00 %
23.12.2021 22:34 6,7 C 6,1 C 3,9 C 98 % 1006,2 hPa 0,0 l/m 0 min 2 min 0 W/m 19,3 km/h (3 Bft) 100,00 %
23.12.2021 22:36 6,7 C 6,1 C 3,9 C 98 % 1006,3 hPa 0,0 l/m 0 min 2 min 0 W/m 12,9 km/h (3 Bft) 100,00 %
23.12.2021 22:38 6,7 C 6,1 C 3,9 C 98 % 1006,2 hPa 0,0 l/m 0 min 0 min 0 W/m 19,3 km/h (3 Bft) 100,00 %
23.12.2021 22:40 6,7 C 6,1 C 3,9 C 99 % 1006,2 hPa 0,0 l/m 0 min 0 min 0 W/m 19,3 km/h (3 Bft) 100,00 %
23.12.2021 22:42 6,7 C 6,1 C 3,9 C 99 % 1006,2 hPa 0,0 l/m 0 min 0 min 0 W/m 19,3 km/h (3 Bft) 100,00 %
23.12.2021 22:44 6,7 C 6,1 C 3,9 C 99 % 1006,2 hPa 0,2 l/m 0 min 2 min 0 W/m 16,1 km/h (3 Bft) 100,00 %
23.12.2021 22:46 6,7 C 6,1 C 3,9 C 99 % 1006,2 hPa 0,0 l/m 0 min 2 min 0 W/m 16,1 km/h (3 Bft) 100,00 %
23.12.2021 22:48 6,7 C 6,1 C 3,9 C 99 % 1006,2 hPa 0,2 l/m 0 min 2 min 0 W/m 12,9 km/h (3 Bft) 100,00 %
23.12.2021 22:50 6,7 C 6,1 C 3,9 C 99 % 1006,2 hPa 0,0 l/m 0 min 2 min 0 W/m 16,1 km/h (3 Bft) 100,00 %
23.12.2021 22:52 6,8 C 6,1 C 3,9 C 99 % 1006,1 hPa 0,0 l/m 0 min 0 min 0 W/m 16,1 km/h (3 Bft) 100,00 %
23.12.2021 22:54 6,8 C 6,1 C 3,9 C 99 % 1006,2 hPa 0,0 l/m 0 min 0 min 0 W/m 22,5 km/h (4 Bft) 95,65 %
23.12.2021 22:56 6,8 C 6,1 C 3,9 C 99 % 1006,2 hPa 0,0 l/m 0 min 0 min 0 W/m 19,3 km/h (3 Bft) 100,00 %
23.12.2021 22:58 6,8 C 6,1 C 3,9 C 99 % 1006,2 hPa 0,0 l/m 0 min 0 min 0 W/m 25,7 km/h (4 Bft) 97,67 %
23.12.2021 23:00 6,8 C 6,1 C 3,9 C 99 % 1006,2 hPa 0,0 l/m 0 min 0 min 0 W/m 12,9 km/h (3 Bft) 100,00 %
23.12.2021 23:02 6,8 C 6,1 C 3,9 C 99 % 1006,3 hPa 0,2 l/m 0 min 0 min 0 W/m 16,1 km/h (3 Bft) 97,92 %
23.12.2021 23:04 6,9 C 6,1 C 3,9 C 99 % 1006,2 hPa 0,0 l/m 0 min 0 min 0 W/m 19,3 km/h (3 Bft) 100,00 %
23.12.2021 23:06 6,9 C 6,1 C 3,9 C 99 % 1006,2 hPa 0,0 l/m 0 min 0 min 0 W/m 19,3 km/h (3 Bft) 100,00 %
23.12.2021 23:08 6,9 C 6,1 C 3,9 C 99 % 1006,1 hPa 0,0 l/m 0 min 0 min 0 W/m 16,1 km/h (3 Bft) 97,96 %
23.12.2021 23:10 6,9 C 6,1 C 3,9 C 99 % 1006,1 hPa 0,0 l/m 0 min 0 min 0 W/m 9,7 km/h (2 Bft) 100,00 %
23.12.2021 23:12 6,9 C 6,1 C 4,4 C 99 % 1006,1 hPa 0,0 l/m 0 min 0 min 0 W/m 12,9 km/h (3 Bft) 100,00 %
23.12.2021 23:14 6,9 C 6,1 C 4,4 C 99 % 1006,1 hPa 0,0 l/m 0 min 0 min 0 W/m 12,9 km/h (3 Bft) 97,87 %
23.12.2021 23:16 6,9 C 6,1 C 4,4 C 99 % 1006,1 hPa 0,0 l/m 0 min 0 min 0 W/m 22,5 km/h (4 Bft) 97,87 %
23.12.2021 23:18 6,9 C 6,1 C 4,4 C 99 % 1006,1 hPa 0,0 l/m 0 min 0 min 0 W/m 22,5 km/h (4 Bft) 95,74 %
23.12.2021 23:20 7,0 C 6,1 C 4,4 C 99 % 1006,0 hPa 0,0 l/m 0 min 0 min 0 W/m 12,9 km/h (3 Bft) 96,30 %
23.12.2021 23:22 7,0 C 6,1 C 4,4 C 99 % 1006,0 hPa 0,0 l/m 0 min 0 min 0 W/m 9,7 km/h (2 Bft) 95,74 %
23.12.2021 23:24 7,0 C 6,1 C 4,4 C 99 % 1006,0 hPa 0,0 l/m 0 min 0 min 0 W/m 12,9 km/h (3 Bft) 94,00 %
23.12.2021 23:26 7,0 C 6,1 C 4,4 C 99 % 1005,9 hPa 0,0 l/m 0 min 0 min 0 W/m 16,1 km/h (3 Bft) 93,62 %
23.12.2021 23:28 7,0 C 6,1 C 4,4 C 99 % 1005,9 hPa 0,0 l/m 0 min 0 min 0 W/m 25,7 km/h (4 Bft) 93,62 %
23.12.2021 23:30 7,1 C 6,1 C 4,4 C 99 % 1005,8 hPa 0,0 l/m 0 min 0 min 0 W/m 19,3 km/h (3 Bft) 97,22 %
23.12.2021 23:32 7,1 C 6,1 C 4,4 C 99 % 1005,9 hPa 0,0 l/m 0 min 0 min 0 W/m 12,9 km/h (3 Bft) 94,44 %
23.12.2021 23:34 7,1 C 6,1 C 4,4 C 99 % 1005,9 hPa 0,0 l/m 0 min 0 min 0 W/m 29,0 km/h (5 Bft) 96,00 %
23.12.2021 23:36 7,2 C 6,1 C 4,4 C 99 % 1005,9 hPa 0,0 l/m 0 min 0 min 0 W/m 19,3 km/h (3 Bft) 95,74 %
23.12.2021 23:38 7,2 C 6,1 C 4,4 C 99 % 1005,9 hPa 0,0 l/m 0 min 0 min 0 W/m 29,0 km/h (5 Bft) 91,67 %
23.12.2021 23:40 7,2 C 6,1 C 4,4 C 99 % 1005,9 hPa 0,0 l/m 0 min 0 min 0 W/m 25,7 km/h (4 Bft) 95,65 %
23.12.2021 23:42 7,2 C 6,1 C 4,4 C 99 % 1005,9 hPa 0,0 l/m 0 min 0 min 0 W/m 22,5 km/h (4 Bft) 93,62 %
23.12.2021 23:44 7,2 C 6,1 C 4,4 C 99 % 1005,8 hPa 0,0 l/m 0 min 0 min 0 W/m 12,9 km/h (3 Bft) 94,29 %
23.12.2021 23:46 7,2 C 6,1 C 4,4 C 99 % 1005,8 hPa 0,0 l/m 0 min 2 min 0 W/m 16,1 km/h (3 Bft) 92,73 %
23.12.2021 23:48 7,3 C 6,1 C 4,4 C 99 % 1005,8 hPa 0,0 l/m 0 min 2 min 0 W/m 25,7 km/h (4 Bft) 93,62 %
23.12.2021 23:50 7,3 C 6,7 C 4,4 C 99 % 1005,7 hPa 0,0 l/m 0 min 0 min 0 W/m 19,3 km/h (3 Bft) 91,49 %
23.12.2021 23:52 7,3 C 6,7 C 4,4 C 99 % 1005,9 hPa 0,0 l/m 0 min 0 min 0 W/m 16,1 km/h (3 Bft) 93,48 %
23.12.2021 23:54 7,3 C 6,7 C 4,4 C 99 % 1006,0 hPa 0,0 l/m 0 min 0 min 0 W/m 16,1 km/h (3 Bft) 93,62 %
23.12.2021 23:56 7,3 C 6,7 C 4,4 C 99 % 1006,0 hPa 0,0 l/m 0 min 0 min 0 W/m 25,7 km/h (4 Bft) 92,00 %
23.12.2021 23:58 7,3 C 6,7 C 4,4 C 99 % 1006,0 hPa 0,0 l/m 0 min 0 min 0 W/m 22,5 km/h (4 Bft) 95,83 %
_ Min-Zeit 05:52 00:00 03:04 14:00 23:50 - - - - 00:08 07:30
Minimum _ -1,2 C -1,7 C -3,9 C 83 % 1005,7 hPa - - - - 3,2 km/h (1 Bft) 50,00 %
_ Max-Zeit 23:48 23:50 23:12 22:40 00:00 20:34 00:00 20:14 11:18 03:52 01:16
Maximum _ 7,3 C 6,7 C 4,4 C 99 % 1018,7 hPa 0,2 l/m 0 min 2 min 129 W/m 29,0 km/h
S-SO (5 Bft)
100,00 %
Durchschnitt _ 2,0 C 1,5 C -0,9 C 90 % 1011,4 hPa #2,2 l/m #0 min. #46 min. 60 W/m 14,7 km/h (3 Bft) 97,23 %
© 2021 W. Hausmann